Observation data for Vigo Park on 01/20/2019      Previous  Date  Next       Current Mesonet Observations  Soil Data  Daily Summary Page  Observations in Plain Language
KVP1 200600Z 15007KT M03/M06 A3027 RMK A01 T10341063  RH  081%=      5-min Rain = 0
KVP1 200601Z 16007KT M04/M06 A3027 RMK A01 T10351062  RH  081%=      5-min Rain = 0
KVP1 200602Z 16006KT M04/M06 A3027 RMK A01 T10351062  RH  081%=      5-min Rain = 0
KVP1 200603Z 16006KT M04/M06 A3027 RMK A01 T10351062  RH  082%=      5-min Rain = 0
KVP1 200604Z 16006KT M04/M06 A3028 RMK A01 T10361062  RH  082%=      5-min Rain = 0
KVP1 200605Z 15006KT M04/M06 A3028 RMK A01 T10361061  RH  082%=      5-min Rain = 0
KVP1 200606Z 15006KT M04/M06 A3028 RMK A01 T10351061  RH  082%=      5-min Rain = 0
KVP1 200607Z 15006KT M04/M06 A3028 RMK A01 T10351062  RH  082%=      5-min Rain = 0
KVP1 200608Z 16006KT M04/M06 A3028 RMK A01 T10351062  RH  082%=      5-min Rain = 0
KVP1 200609Z 16007KT M03/M06 A3027 RMK A01 T10341061  RH  082%=      5-min Rain = 0
KVP1 200610Z 16007KT M04/M06 A3027 RMK A01 T10351061  RH  082%=      5-min Rain = 0
KVP1 200611Z 16007KT M04/M06 A3027 RMK A01 T10351061  RH  082%=      5-min Rain = 0
KVP1 200612Z 16008KT M04/M06 A3027 RMK A01 T10351062  RH  082%=      5-min Rain = 0
KVP1 200613Z 16008KT M04/M06 A3028 RMK A01 T10361061  RH  083%=      5-min Rain = 0
KVP1 200614Z 16008KT M04/M06 A3028 RMK A01 T10361060  RH  083%=      5-min Rain = 0
KVP1 200615Z 16008KT M04/M06 A3027 RMK A01 T10351059  RH  083%=      5-min Rain = 0
KVP1 200616Z 16008KT M03/M06 A3027 RMK A01 T10341058  RH  083%=      5-min Rain = 0
KVP1 200617Z 15008KT M03/M06 A3027 RMK A01 T10331058  RH  083%=      5-min Rain = 0
KVP1 200618Z 16008KT M03/M06 A3027 RMK A01 T10331058  RH  083%=      5-min Rain = 0
KVP1 200619Z 16007KT M03/M06 A3027 RMK A01 T10331059  RH  083%=      5-min Rain = 0
KVP1 200620Z 16007KT M03/M06 A3027 RMK A01 T10331059  RH  083%=      5-min Rain = 0
KVP1 200621Z 16007KT M03/M06 A3027 RMK A01 T10331059  RH  083%=      5-min Rain = 0
KVP1 200622Z 16007KT M03/M06 A3027 RMK A01 T10331059  RH  083%=      5-min Rain = 0
KVP1 200623Z 16007KT M03/M06 A3027 RMK A01 T10341059  RH  082%=      5-min Rain = 0
KVP1 200624Z 16007KT M04/M06 A3027 RMK A01 T10351061  RH  082%=      5-min Rain = 0
KVP1 200625Z 16007KT M04/M06 A3027 RMK A01 T10361062  RH  083%=      5-min Rain = 0
KVP1 200626Z 17007KT M04/M06 A3027 RMK A01 T10371063  RH  083%=      5-min Rain = 0
KVP1 200627Z 17007KT M04/M07 A3027 RMK A01 T10391065  RH  082%=      5-min Rain = 0
KVP1 200628Z 17007KT M04/M07 A3027 RMK A01 T10411067  RH  082%=      5-min Rain = 0
KVP1 200629Z 17007KT M04/M07 A3027 RMK A01 T10431069  RH  082%=      5-min Rain = 0
KVP1 200630Z 17007KT M05/M07 A3027 RMK A01 T10451070  RH  082%=      5-min Rain = 0
KVP1 200631Z 17008KT M05/M07 A3027 RMK A01 T10461071  RH  083%=      5-min Rain = 0
KVP1 200632Z 16008KT M05/M07 A3027 RMK A01 T10481071  RH  084%=      5-min Rain = 0
KVP1 200633Z 16009KT M05/M07 A3027 RMK A01 T10491072  RH  084%=      5-min Rain = 0
KVP1 200634Z 16008KT M05/M07 A3027 RMK A01 T10491070  RH  085%=      5-min Rain = 0
KVP1 200635Z 16009KT M05/M07 A3026 RMK A01 T10491069  RH  086%=      5-min Rain = 0
KVP1 200636Z 16009KT M05/M07 A3026 RMK A01 T10481067  RH  086%=      5-min Rain = 0
KVP1 200637Z 16008KT M05/M07 A3026 RMK A01 T10471066  RH  087%=      5-min Rain = 0
KVP1 200638Z 16007KT M05/M07 A3026 RMK A01 T10461065  RH  087%=      5-min Rain = 0
KVP1 200639Z 15007KT M05/M06 A3026 RMK A01 T10451064  RH  087%=      5-min Rain = 0
KVP1 200640Z 16007KT M04/M06 A3027 RMK A01 T10441063  RH  086%=      5-min Rain = 0
KVP1 200641Z 15007KT M04/M06 A3027 RMK A01 T10431063  RH  086%=      5-min Rain = 0
KVP1 200642Z 15007KT M04/M06 A3026 RMK A01 T10421063  RH  086%=      5-min Rain = 0
KVP1 200643Z 16008KT M04/M06 A3026 RMK A01 T10431063  RH  085%=      5-min Rain = 0
KVP1 200644Z 17008KT M04/M06 A3026 RMK A01 T10421063  RH  085%=      5-min Rain = 0
KVP1 200645Z 17008KT M04/M06 A3026 RMK A01 T10421063  RH  085%=      5-min Rain = 0
KVP1 200646Z 17008KT M04/M06 A3027 RMK A01 T10421062  RH  086%=      5-min Rain = 0
KVP1 200647Z 16009KT M04/M06 A3027 RMK A01 T10411061  RH  086%=      5-min Rain = 0
KVP1 200648Z 16008KT M04/M06 A3027 RMK A01 T10401060  RH  086%=      5-min Rain = 0
KVP1 200649Z 17008KT M04/M06 A3027 RMK A01 T10391060  RH  086%=      5-min Rain = 0
KVP1 200650Z 17008KT M04/M06 A3027 RMK A01 T10391061  RH  085%=      5-min Rain = 0
KVP1 200651Z 17008KT M04/M06 A3028 RMK A01 T10401063  RH  084%=      5-min Rain = 0
KVP1 200652Z 17008KT M04/M07 A3027 RMK A01 T10421065  RH  084%=      5-min Rain = 0
KVP1 200653Z 17006KT M04/M07 A3027 RMK A01 T10431066  RH  084%=      5-min Rain = 0
KVP1 200654Z 17008KT M05/M07 A3027 RMK A01 T10451067  RH  084%=      5-min Rain = 0
KVP1 200655Z 17008KT M05/M07 A3027 RMK A01 T10461068  RH  085%=      5-min Rain = 0
KVP1 200656Z 17007KT M05/M07 A3027 RMK A01 T10461067  RH  085%=      5-min Rain = 0
KVP1 200657Z 18008KT M05/M07 A3028 RMK A01 T10461067  RH  085%=      5-min Rain = 0
KVP1 200658Z 17007KT M05/M07 A3028 RMK A01 T10461067  RH  085%=      5-min Rain = 0
KVP1 200659Z 17007KT M05/M07 A3027 RMK A01 T10461067  RH  085%=      5-min Rain = 0
KVP1 200700Z 16007KT M05/M07 A3027 RMK A01 T10461067  RH  085%=      5-min Rain = 0
KVP1 200701Z 17007KT M05/M07 A3027 RMK A01 T10471068  RH  085%=      5-min Rain = 0
KVP1 200702Z 16007KT M05/M07 A3027 RMK A01 T10481069  RH  085%=      5-min Rain = 0
KVP1 200703Z 16007KT M05/M07 A3027 RMK A01 T10481069  RH  086%=      5-min Rain = 0
KVP1 200704Z 17007KT M05/M07 A3028 RMK A01 T10481068  RH  086%=      5-min Rain = 0
KVP1 200705Z 17007KT M05/M07 A3028 RMK A01 T10491069  RH  086%=      5-min Rain = 0
KVP1 200706Z 17008KT M05/M07 A3028 RMK A01 T10501070  RH  086%=      5-min Rain = 0
KVP1 200707Z 17008KT M05/M07 A3028 RMK A01 T10501070  RH  086%=      5-min Rain = 0
KVP1 200708Z 17008KT M05/M07 A3028 RMK A01 T10491068  RH  087%=      5-min Rain = 0
KVP1 200709Z 17007KT M05/M07 A3027 RMK A01 T10481067  RH  087%=      5-min Rain = 0
KVP1 200710Z 17008KT M05/M07 A3027 RMK A01 T10491068  RH  086%=      5-min Rain = 0
KVP1 200711Z 16007KT M05/M07 A3027 RMK A01 T10491069  RH  086%=      5-min Rain = 0
KVP1 200712Z 17007KT M05/M07 A3027 RMK A01 T10501069  RH  087%=      5-min Rain = 0
KVP1 200713Z 18007KT M05/M07 A3027 RMK A01 T10501068  RH  087%=      5-min Rain = 0
KVP1 200714Z 17006KT M05/M07 A3027 RMK A01 T10501070  RH  086%=      5-min Rain = 0
KVP1 200715Z 17006KT M05/M07 A3027 RMK A01 T10511071  RH  086%=      5-min Rain = 0
KVP1 200716Z 18005KT M05/M07 A3027 RMK A01 T10521072  RH  086%=      5-min Rain = 0
KVP1 200717Z 18004KT M06/M08 A3027 RMK A01 T10551075  RH  086%=      5-min Rain = 0
KVP1 200718Z 18006KT M06/M08 A3027 RMK A01 T10571077  RH  086%=      5-min Rain = 0
KVP1 200719Z 18007KT M06/M08 A3027 RMK A01 T10581077  RH  086%=      5-min Rain = 0
KVP1 200720Z 18007KT M06/M08 A3027 RMK A01 T10581076  RH  087%=      5-min Rain = 0
KVP1 200721Z 17007KT M06/M07 A3027 RMK A01 T10571074  RH  088%=      5-min Rain = 0
KVP1 200722Z 17007KT M06/M07 A3027 RMK A01 T10561072  RH  089%=      5-min Rain = 0
KVP1 200723Z 18006KT M05/M07 A3027 RMK A01 T10541069  RH  089%=      5-min Rain = 0
KVP1 200724Z 18006KT M05/M07 A3027 RMK A01 T10521069  RH  088%=      5-min Rain = 0
KVP1 200725Z 16008KT M05/M07 A3027 RMK A01 T10521069  RH  088%=      5-min Rain = 0
KVP1 200726Z 17007KT M05/M07 A3027 RMK A01 T10511069  RH  087%=      5-min Rain = 0
KVP1 200727Z 18007KT M05/M07 A3027 RMK A01 T10511070  RH  087%=      5-min Rain = 0
KVP1 200728Z 16007KT M05/M07 A3027 RMK A01 T10521071  RH  086%=      5-min Rain = 0
KVP1 200729Z 16007KT M05/M07 A3027 RMK A01 T10521071  RH  086%=      5-min Rain = 0
KVP1 200730Z 18006KT M05/M07 A3028 RMK A01 T10531071  RH  087%=      5-min Rain = 0
KVP1 200731Z 19006KT M05/M07 A3028 RMK A01 T10531071  RH  087%=      5-min Rain = 0
KVP1 200732Z 18006KT M05/M07 A3027 RMK A01 T10531071  RH  088%=      5-min Rain = 0
KVP1 200733Z 16007KT M05/M07 A3027 RMK A01 T10531069  RH  088%=      5-min Rain = 0
KVP1 200734Z 15008KT M05/M07 A3027 RMK A01 T10521069  RH  088%=      5-min Rain = 0
KVP1 200735Z 16007KT M05/M07 A3027 RMK A01 T10521070  RH  087%=      5-min Rain = 0
KVP1 200736Z 18006KT M05/M07 A3027 RMK A01 T10521070  RH  087%=      5-min Rain = 0
KVP1 200737Z 18007KT M05/M07 A3028 RMK A01 T10531073  RH  086%=      5-min Rain = 0
KVP1 200738Z 17007KT M06/M08 A3028 RMK A01 T10551075  RH  086%=      5-min Rain = 0
KVP1 200739Z 16008KT M06/M08 A3028 RMK A01 T10561075  RH  087%=      5-min Rain = 0
KVP1 200740Z 16007KT M06/M08 A3028 RMK A01 T10571075  RH  087%=      5-min Rain = 0
KVP1 200741Z 17007KT M06/M08 A3028 RMK A01 T10581076  RH  087%=      5-min Rain = 0
KVP1 200742Z 16007KT M06/M08 A3028 RMK A01 T10591076  RH  088%=      5-min Rain = 0
KVP1 200743Z 16007KT M06/M07 A3028 RMK A01 T10581074  RH  089%=      5-min Rain = 0
KVP1 200744Z 17007KT M06/M07 A3028 RMK A01 T10561071  RH  090%=      5-min Rain = 0
KVP1 200745Z 17007KT M06/M07 A3028 RMK A01 T10551069  RH  090%=      5-min Rain = 0
KVP1 200746Z 17007KT M05/M07 A3028 RMK A01 T10541069  RH  090%=      5-min Rain = 0
KVP1 200747Z 16007KT M05/M07 A3028 RMK A01 T10531068  RH  089%=      5-min Rain = 0
KVP1 200748Z 17006KT M05/M07 A3028 RMK A01 T10521066  RH  090%=      5-min Rain = 0
KVP1 200749Z 17006KT M05/M07 A3028 RMK A01 T10511065  RH  090%=      5-min Rain = 0
KVP1 200750Z 17006KT M05/M07 A3028 RMK A01 T10501066  RH  089%=      5-min Rain = 0
KVP1 200751Z 16007KT M05/M07 A3028 RMK A01 T10501066  RH  089%=      5-min Rain = 0
KVP1 200752Z 16007KT M05/M07 A3028 RMK A01 T10501066  RH  089%=      5-min Rain = 0
KVP1 200753Z 16007KT M05/M07 A3028 RMK A01 T10501066  RH  089%=      5-min Rain = 0
KVP1 200754Z 16007KT M05/M07 A3028 RMK A01 T10501065  RH  089%=      5-min Rain = 0
KVP1 200755Z 17006KT M05/M06 A3028 RMK A01 T10481064  RH  089%=      5-min Rain = 0
KVP1 200756Z 17006KT M05/M06 A3028 RMK A01 T10481064  RH  089%=      5-min Rain = 0
KVP1 200757Z 16006KT M05/M06 A3028 RMK A01 T10481064  RH  089%=      5-min Rain = 0
KVP1 200758Z 16006KT M05/M06 A3028 RMK A01 T10481064  RH  089%=      5-min Rain = 0
KVP1 200759Z 16005KT M05/M07 A3028 RMK A01 T10491065  RH  088%=      5-min Rain = 0
KVP1 200800Z 16005KT M05/M07 A3028 RMK A01 T10491066  RH  088%=      5-min Rain = 0
KVP1 200801Z 17005KT M05/M07 A3028 RMK A01 T10501067  RH  088%=      5-min Rain = 0
KVP1 200802Z 16006KT M05/M07 A3028 RMK A01 T10511068  RH  088%=      5-min Rain = 0
KVP1 200803Z 15006KT M05/M07 A3028 RMK A01 T10521068  RH  088%=      5-min Rain = 0
KVP1 200804Z 15006KT M05/M07 A3027 RMK A01 T10521068  RH  089%=      5-min Rain = 0
KVP1 200805Z 16006KT M05/M07 A3027 RMK A01 T10511067  RH  089%=      5-min Rain = 0
KVP1 200806Z 15006KT M05/M07 A3027 RMK A01 T10521068  RH  089%=      5-min Rain = 0
KVP1 200807Z 15005KT M05/M07 A3027 RMK A01 T10521068  RH  089%=      5-min Rain = 0
KVP1 200808Z 16004KT M05/M07 A3027 RMK A01 T10521067  RH  089%=      5-min Rain = 0
KVP1 200809Z 15005KT M05/M07 A3027 RMK A01 T10521068  RH  089%=      5-min Rain = 0
KVP1 200810Z 15005KT M05/M07 A3027 RMK A01 T10521068  RH  089%=      5-min Rain = 0
KVP1 200811Z 16006KT M05/M07 A3027 RMK A01 T10531069  RH  089%=      5-min Rain = 0
KVP1 200812Z 16005KT M05/M07 A3027 RMK A01 T10541070  RH  089%=      5-min Rain = 0
KVP1 200813Z 16005KT M06/M07 A3027 RMK A01 T10561073  RH  088%=      5-min Rain = 0
KVP1 200814Z 16005KT M06/M08 A3027 RMK A01 T10581075  RH  088%=      5-min Rain = 0
KVP1 200815Z 16005KT M06/M07 A3027 RMK A01 T10581074  RH  089%=      5-min Rain = 0
KVP1 200816Z 16005KT M06/M07 A3027 RMK A01 T10581073  RH  090%=      5-min Rain = 0
KVP1 200817Z 17005KT M06/M07 A3026 RMK A01 T10581072  RH  090%=      5-min Rain = 0
KVP1 200818Z 17005KT M06/M07 A3026 RMK A01 T10581072  RH  090%=      5-min Rain = 0
KVP1 200819Z 16006KT M06/M07 A3026 RMK A01 T10581071  RH  091%=      5-min Rain = 0
KVP1 200820Z 16006KT M06/M07 A3027 RMK A01 T10581071  RH  091%=      5-min Rain = 0
KVP1 200821Z 16006KT M06/M07 A3027 RMK A01 T10581071  RH  091%=      5-min Rain = 0
KVP1 200822Z 16006KT M06/M07 A3027 RMK A01 T10581071  RH  091%=      5-min Rain = 0
KVP1 200823Z 17006KT M06/M07 A3027 RMK A01 T10571071  RH  090%=      5-min Rain = 0
KVP1 200824Z 17006KT M06/M07 A3026 RMK A01 T10571071  RH  090%=      5-min Rain = 0
KVP1 200825Z 17006KT M06/M07 A3026 RMK A01 T10581071  RH  090%=      5-min Rain = 0
KVP1 200826Z 17006KT M06/M07 A3026 RMK A01 T10581072  RH  090%=      5-min Rain = 0
KVP1 200827Z 18006KT M06/M07 A3026 RMK A01 T10581072  RH  090%=      5-min Rain = 0
KVP1 200828Z 18006KT M06/M07 A3026 RMK A01 T10591074  RH  090%=      5-min Rain = 0
KVP1 200829Z 18005KT M06/M08 A3026 RMK A01 T10611075  RH  089%=      5-min Rain = 0
KVP1 200830Z 17006KT M06/M08 A3026 RMK A01 T10611076  RH  089%=      5-min Rain = 0
KVP1 200831Z 17006KT M06/M08 A3026 RMK A01 T10621076  RH  090%=      5-min Rain = 0
KVP1 200832Z 18005KT M06/M08 A3026 RMK A01 T10621076  RH  090%=      5-min Rain = 0
KVP1 200833Z 18005KT M06/M08 A3026 RMK A01 T10631076  RH  091%=      5-min Rain = 0
KVP1 200834Z 18005KT M06/M08 A3027 RMK A01 T10621075  RH  091%=      5-min Rain = 0
KVP1 200835Z 18006KT M06/M08 A3027 RMK A01 T10621075  RH  091%=      5-min Rain = 0
KVP1 200836Z 17006KT M06/M08 A3027 RMK A01 T10621075  RH  091%=      5-min Rain = 0
KVP1 200837Z 17005KT M06/M08 A3027 RMK A01 T10631075  RH  091%=      5-min Rain = 0
KVP1 200838Z 18005KT M06/M08 A3027 RMK A01 T10631075  RH  091%=      5-min Rain = 0
KVP1 200839Z 18006KT M06/M08 A3027 RMK A01 T10621075  RH  091%=      5-min Rain = 0
KVP1 200840Z 18006KT M06/M08 A3027 RMK A01 T10621075  RH  091%=      5-min Rain = 0
KVP1 200841Z 18007KT M06/M08 A3027 RMK A01 T10621075  RH  090%=      5-min Rain = 0
KVP1 200842Z 19006KT M06/M08 A3027 RMK A01 T10621076  RH  090%=      5-min Rain = 0
KVP1 200843Z 19006KT M06/M08 A3027 RMK A01 T10631078  RH  089%=      5-min Rain = 0
KVP1 200844Z 19006KT M06/M08 A3027 RMK A01 T10641079  RH  089%=      5-min Rain = 0
KVP1 200845Z 19006KT M07/M08 A3027 RMK A01 T10651080  RH  089%=      5-min Rain = 0
KVP1 200846Z 19006KT M07/M08 A3027 RMK A01 T10661081  RH  089%=      5-min Rain = 0
KVP1 200847Z 19007KT M07/M08 A3027 RMK A01 T10661081  RH  089%=      5-min Rain = 0
KVP1 200848Z 19007KT M07/M08 A3027 RMK A01 T10671082  RH  089%=      5-min Rain = 0
KVP1 200849Z 19007KT M07/M08 A3027 RMK A01 T10681083  RH  089%=      5-min Rain = 0
KVP1 200850Z 19007KT M07/M08 A3027 RMK A01 T10691084  RH  089%=      5-min Rain = 0
KVP1 200851Z 19007KT M07/M08 A3027 RMK A01 T10701084  RH  089%=      5-min Rain = 0
KVP1 200852Z 19007KT M07/M08 A3027 RMK A01 T10701084  RH  090%=      5-min Rain = 0
KVP1 200853Z 19006KT M07/M08 A3027 RMK A01 T10701084  RH  090%=      5-min Rain = 0
KVP1 200854Z 19006KT M07/M08 A3027 RMK A01 T10701083  RH  090%=      5-min Rain = 0
KVP1 200855Z 20006KT M07/M08 A3027 RMK A01 T10701083  RH  091%=      5-min Rain = 0
KVP1 200856Z 19006KT M07/M08 A3027 RMK A01 T10701083  RH  091%=      5-min Rain = 0
KVP1 200857Z 19006KT M07/M08 A3027 RMK A01 T10701083  RH  091%=      5-min Rain = 0
KVP1 200858Z 19006KT M07/M08 A3027 RMK A01 T10701082  RH  091%=      5-min Rain = 0
KVP1 200859Z 19006KT M07/M08 A3027 RMK A01 T10701082  RH  091%=      5-min Rain = 0
KVP1 200900Z 18006KT M07/M08 A3027 RMK A01 T10701082  RH  091%=      5-min Rain = 0
KVP1 200901Z 18006KT M07/M08 A3027 RMK A01 T10701082  RH  091%=      5-min Rain = 0
KVP1 200902Z 18006KT M07/M08 A3027 RMK A01 T10701083  RH  091%=      5-min Rain = 0
KVP1 200903Z 19006KT M07/M08 A3027 RMK A01 T10711084  RH  091%=      5-min Rain = 0
KVP1 200904Z 19005KT M07/M08 A3027 RMK A01 T10711083  RH  091%=      5-min Rain = 0
KVP1 200905Z 20005KT M07/M08 A3027 RMK A01 T10711083  RH  091%=      5-min Rain = 0
KVP1 200906Z 20006KT M07/M08 A3027 RMK A01 T10701082  RH  091%=      5-min Rain = 0
KVP1 200907Z 20006KT M07/M08 A3027 RMK A01 T10701082  RH  091%=      5-min Rain = 0
KVP1 200908Z 20006KT M07/M08 A3027 RMK A01 T10691081  RH  091%=      5-min Rain = 0
KVP1 200909Z 20006KT M07/M08 A3027 RMK A01 T10691080  RH  092%=      5-min Rain = 0
KVP1 200910Z 20007KT M07/M08 A3027 RMK A01 T10681080  RH  092%=      5-min Rain = 0
KVP1 200911Z 20007KT M07/M08 A3027 RMK A01 T10681080  RH  091%=      5-min Rain = 0
KVP1 200912Z 20008KT M07/M08 A3027 RMK A01 T10681080  RH  091%=      5-min Rain = 0
KVP1 200913Z 20008KT M07/M08 A3027 RMK A01 T10681080  RH  091%=      5-min Rain = 0
KVP1 200914Z 20007KT M07/M08 A3027 RMK A01 T10681080  RH  091%=      5-min Rain = 0
KVP1 200915Z 20007KT M07/M08 A3027 RMK A01 T10681080  RH  091%=      5-min Rain = 0
KVP1 200916Z 20007KT M07/M08 A3027 RMK A01 T10681080  RH  091%=      5-min Rain = 0
KVP1 200917Z 20007KT M07/M08 A3027 RMK A01 T10681080  RH  091%=      5-min Rain = 0
KVP1 200918Z 20007KT M07/M08 A3027 RMK A01 T10681079  RH  091%=      5-min Rain = 0
KVP1 200919Z 20007KT M07/M08 A3027 RMK A01 T10671079  RH  092%=      5-min Rain = 0
KVP1 200920Z 20007KT M07/M08 A3027 RMK A01 T10671079  RH  091%=      5-min Rain = 0
KVP1 200921Z 20008KT M07/M08 A3027 RMK A01 T10681079  RH  091%=      5-min Rain = 0
KVP1 200922Z 20008KT M07/M08 A3027 RMK A01 T10681080  RH  091%=      5-min Rain = 0
KVP1 200923Z 20008KT M07/M08 A3027 RMK A01 T10681079  RH  091%=      5-min Rain = 0
KVP1 200924Z 20007KT M07/M08 A3027 RMK A01 T10681080  RH  091%=      5-min Rain = 0
KVP1 200925Z 20007KT M07/M08 A3027 RMK A01 T10681080  RH  091%=      5-min Rain = 0
KVP1 200926Z 19007KT M07/M08 A3027 RMK A01 T10671079  RH  091%=      5-min Rain = 0
KVP1 200927Z 19007KT M07/M08 A3027 RMK A01 T10671078  RH  091%=      5-min Rain = 0
KVP1 200928Z 19007KT M07/M08 A3027 RMK A01 T10671078  RH  091%=      5-min Rain = 0
KVP1 200929Z 19007KT M07/M08 A3028 RMK A01 T10661077  RH  091%=      5-min Rain = 0
KVP1 200930Z 19007KT M07/M08 A3027 RMK A01 T10651077  RH  091%=      5-min Rain = 0
KVP1 200931Z 19007KT M06/M08 A3027 RMK A01 T10641076  RH  091%=      5-min Rain = 0
KVP1 200932Z 20007KT M06/M08 A3027 RMK A01 T10631075  RH  091%=      5-min Rain = 0
KVP1 200933Z 20007KT M06/M07 A3027 RMK A01 T10621074  RH  091%=      5-min Rain = 0
KVP1 200934Z 20008KT M06/M07 A3027 RMK A01 T10611074  RH  091%=      5-min Rain = 0
KVP1 200935Z 19007KT M06/M07 A3027 RMK A01 T10611074  RH  090%=      5-min Rain = 0
KVP1 200936Z 20007KT M06/M07 A3027 RMK A01 T10611074  RH  090%=      5-min Rain = 0
KVP1 200937Z 19006KT M06/M08 A3027 RMK A01 T10611075  RH  090%=      5-min Rain = 0
KVP1 200938Z 19007KT M06/M08 A3027 RMK A01 T10611075  RH  089%=      5-min Rain = 0
KVP1 200939Z 19006KT M06/M08 A3027 RMK A01 T10611076  RH  089%=      5-min Rain = 0
KVP1 200940Z 19006KT M06/M08 A3027 RMK A01 T10611077  RH  089%=      5-min Rain = 0
KVP1 200941Z 18006KT M06/M08 A3027 RMK A01 T10611077  RH  089%=      5-min Rain = 0
KVP1 200942Z 18006KT M06/M08 A3027 RMK A01 T10621078  RH  088%=      5-min Rain = 0
KVP1 200943Z 18006KT M06/M08 A3027 RMK A01 T10631079  RH  088%=      5-min Rain = 0
KVP1 200944Z 18007KT M06/M08 A3027 RMK A01 T10631079  RH  088%=      5-min Rain = 0
KVP1 200945Z 19007KT M06/M08 A3027 RMK A01 T10631079  RH  088%=      5-min Rain = 0
KVP1 200946Z 19007KT M06/M08 A3027 RMK A01 T10631079  RH  088%=      5-min Rain = 0
KVP1 200947Z 19007KT M06/M08 A3027 RMK A01 T10631079  RH  088%=      5-min Rain = 0
KVP1 200948Z 19008KT M06/M08 A3027 RMK A01 T10621078  RH  088%=      5-min Rain = 0
KVP1 200949Z 19008KT M06/M08 A3027 RMK A01 T10611077  RH  088%=      5-min Rain = 0
KVP1 200950Z 19008KT M06/M08 A3027 RMK A01 T10601077  RH  088%=      5-min Rain = 0
KVP1 200951Z 19008KT M06/M08 A3027 RMK A01 T10591077  RH  087%=      5-min Rain = 0
KVP1 200952Z 19008KT M06/M08 A3027 RMK A01 T10591078  RH  087%=      5-min Rain = 0
KVP1 200953Z 19008KT M06/M08 A3027 RMK A01 T10591078  RH  087%=      5-min Rain = 0
KVP1 200954Z 19008KT M06/M08 A3027 RMK A01 T10591078  RH  087%=      5-min Rain = 0
KVP1 200955Z 19008KT M06/M08 A3027 RMK A01 T10591078  RH  086%=      5-min Rain = 0
KVP1 200956Z 19008KT M06/M08 A3027 RMK A01 T10581077  RH  086%=      5-min Rain = 0
KVP1 200957Z 19008KT M06/M08 A3027 RMK A01 T10571077  RH  086%=      5-min Rain = 0
KVP1 200958Z 19008KT M06/M08 A3027 RMK A01 T10571077  RH  085%=      5-min Rain = 0
KVP1 200959Z 19008KT M06/M08 A3027 RMK A01 T10561077  RH  085%=      5-min Rain = 0
KVP1 201000Z 18008KT M06/M08 A3027 RMK A01 T10561078  RH  085%=      5-min Rain = 0
KVP1 201001Z 18007KT M06/M08 A3027 RMK A01 T10561078  RH  085%=      5-min Rain = 0
KVP1 201002Z 18008KT M06/M08 A3027 RMK A01 T10561078  RH  084%=      5-min Rain = 0
KVP1 201003Z 18008KT M06/M08 A3027 RMK A01 T10571079  RH  085%=      5-min Rain = 0
KVP1 201004Z 18008KT M06/M08 A3027 RMK A01 T10571079  RH  085%=      5-min Rain = 0
KVP1 201005Z 18007KT M06/M08 A3027 RMK A01 T10571079  RH  085%=      5-min Rain = 0
KVP1 201006Z 18007KT M06/M08 A3027 RMK A01 T10571079  RH  085%=      5-min Rain = 0
KVP1 201007Z 18007KT M06/M08 A3027 RMK A01 T10581079  RH  085%=      5-min Rain = 0
KVP1 201008Z 18008KT M06/M08 A3027 RMK A01 T10571078  RH  085%=      5-min Rain = 0
KVP1 201009Z 18008KT M06/M08 A3027 RMK A01 T10581079  RH  085%=      5-min Rain = 0
KVP1 201010Z 18007KT M06/M08 A3026 RMK A01 T10581079  RH  085%=      5-min Rain = 0
KVP1 201011Z 18007KT M06/M08 A3026 RMK A01 T10571078  RH  085%=      5-min Rain = 0
KVP1 201012Z 18007KT M06/M08 A3026 RMK A01 T10571078  RH  085%=      5-min Rain = 0
KVP1 201013Z 17007KT M06/M08 A3026 RMK A01 T10571078  RH  085%=      5-min Rain = 0
KVP1 201014Z 17007KT M06/M08 A3026 RMK A01 T10581078  RH  085%=      5-min Rain = 0
KVP1 201015Z 17007KT M06/M08 A3026 RMK A01 T10581078  RH  085%=      5-min Rain = 0
KVP1 201016Z 17007KT M06/M08 A3026 RMK A01 T10581078  RH  086%=      5-min Rain = 0
KVP1 201017Z 17008KT M06/M08 A3026 RMK A01 T10581077  RH  086%=      5-min Rain = 0
KVP1 201018Z 18008KT M06/M08 A3026 RMK A01 T10571077  RH  086%=      5-min Rain = 0
KVP1 201019Z 18008KT M06/M08 A3026 RMK A01 T10571077  RH  086%=      5-min Rain = 0
KVP1 201020Z 18008KT M06/M08 A3026 RMK A01 T10571077  RH  086%=      5-min Rain = 0
KVP1 201021Z 18008KT M06/M08 A3026 RMK A01 T10571077  RH  086%=      5-min Rain = 0
KVP1 201022Z 19008KT M06/M08 A3026 RMK A01 T10571076  RH  086%=      5-min Rain = 0
KVP1 201023Z 19008KT M06/M08 A3026 RMK A01 T10571076  RH  086%=      5-min Rain = 0
KVP1 201024Z 19008KT M06/M08 A3026 RMK A01 T10571076  RH  086%=      5-min Rain = 0
KVP1 201025Z 18008KT M06/M08 A3026 RMK A01 T10571076  RH  086%=      5-min Rain = 0
KVP1 201026Z 18008KT M06/M08 A3026 RMK A01 T10571076  RH  086%=      5-min Rain = 0
KVP1 201027Z 18007KT M06/M08 A3026 RMK A01 T10571076  RH  086%=      5-min Rain = 0
KVP1 201028Z 18007KT M06/M08 A3026 RMK A01 T10571076  RH  086%=      5-min Rain = 0
KVP1 201029Z 18007KT M06/M08 A3026 RMK A01 T10571076  RH  086%=      5-min Rain = 0
KVP1 201030Z 18007KT M06/M08 A3026 RMK A01 T10571077  RH  086%=      5-min Rain = 0
KVP1 201031Z 18007KT M06/M08 A3026 RMK A01 T10571077  RH  086%=      5-min Rain = 0
KVP1 201032Z 18007KT M06/M08 A3026 RMK A01 T10581078  RH  086%=      5-min Rain = 0
KVP1 201033Z 18008KT M06/M08 A3026 RMK A01 T10581078  RH  086%=      5-min Rain = 0
KVP1 201034Z 18007KT M06/M08 A3026 RMK A01 T10591079  RH  086%=      5-min Rain = 0
KVP1 201035Z 18007KT M06/M08 A3026 RMK A01 T10601079  RH  086%=      5-min Rain = 0
KVP1 201036Z 18007KT M06/M08 A3026 RMK A01 T10601079  RH  086%=      5-min Rain = 0
KVP1 201037Z 18007KT M06/M08 A3025 RMK A01 T10601079  RH  087%=      5-min Rain = 0
KVP1 201038Z 18008KT M06/M08 A3025 RMK A01 T10601078  RH  087%=      5-min Rain = 0
KVP1 201039Z 18007KT M06/M08 A3025 RMK A01 T10601078  RH  087%=      5-min Rain = 0
KVP1 201040Z 18007KT M06/M08 A3025 RMK A01 T10601078  RH  087%=      5-min Rain = 0
KVP1 201041Z 18007KT M06/M08 A3025 RMK A01 T10601078  RH  087%=      5-min Rain = 0
KVP1 201042Z 19006KT M06/M08 A3025 RMK A01 T10601078  RH  087%=      5-min Rain = 0
KVP1 201043Z 18006KT M06/M08 A3025 RMK A01 T10601078  RH  087%=      5-min Rain = 0
KVP1 201044Z 18006KT M06/M08 A3025 RMK A01 T10601078  RH  087%=      5-min Rain = 0
KVP1 201045Z 18007KT M06/M08 A3025 RMK A01 T10601078  RH  087%=      5-min Rain = 0
KVP1 201046Z 18007KT M06/M08 A3025 RMK A01 T10601079  RH  087%=      5-min Rain = 0
KVP1 201047Z 18007KT M06/M08 A3025 RMK A01 T10611080  RH  087%=      5-min Rain = 0
KVP1 201048Z 18007KT M06/M08 A3025 RMK A01 T10611080  RH  087%=      5-min Rain = 0
KVP1 201049Z 18006KT M06/M08 A3025 RMK A01 T10621081  RH  087%=      5-min Rain = 0
KVP1 201050Z 18007KT M06/M08 A3025 RMK A01 T10631081  RH  087%=      5-min Rain = 0
KVP1 201051Z 19007KT M06/M08 A3025 RMK A01 T10631081  RH  087%=      5-min Rain = 0
KVP1 201052Z 19007KT M06/M08 A3025 RMK A01 T10631081  RH  087%=      5-min Rain = 0
KVP1 201053Z 19007KT M06/M08 A3025 RMK A01 T10631080  RH  088%=      5-min Rain = 0
KVP1 201054Z 20007KT M06/M08 A3024 RMK A01 T10631080  RH  088%=      5-min Rain = 0
KVP1 201055Z 20006KT M06/M08 A3024 RMK A01 T10631080  RH  088%=      5-min Rain = 0
KVP1 201056Z 20007KT M06/M08 A3024 RMK A01 T10621079  RH  088%=      5-min Rain = 0
KVP1 201057Z 20007KT M06/M08 A3025 RMK A01 T10621079  RH  088%=      5-min Rain = 0
KVP1 201058Z 20006KT M06/M08 A3025 RMK A01 T10621080  RH  088%=      5-min Rain = 0
KVP1 201059Z 20006KT M06/M08 A3025 RMK A01 T10631080  RH  087%=      5-min Rain = 0
KVP1 201100Z 20006KT M06/M08 A3025 RMK A01 T10631081  RH  087%=      5-min Rain = 0
KVP1 201101Z 20006KT M06/M08 A3025 RMK A01 T10641081  RH  088%=      5-min Rain = 0
KVP1 201102Z 20006KT M07/M08 A3025 RMK A01 T10651082  RH  088%=      5-min Rain = 0
KVP1 201103Z 19006KT M07/M08 A3025 RMK A01 T10651082  RH  088%=      5-min Rain = 0
KVP1 201104Z 20006KT M07/M08 A3025 RMK A01 T10651082  RH  088%=      5-min Rain = 0
KVP1 201105Z 20006KT M07/M08 A3025 RMK A01 T10661083  RH  088%=      5-min Rain = 0
KVP1 201106Z 20006KT M07/M08 A3024 RMK A01 T10661082  RH  088%=      5-min Rain = 0
KVP1 201107Z 20006KT M07/M08 A3024 RMK A01 T10661083  RH  088%=      5-min Rain = 0
KVP1 201108Z 20006KT M07/M08 A3024 RMK A01 T10661083  RH  088%=      5-min Rain = 0
KVP1 201109Z 20006KT M07/M08 A3024 RMK A01 T10671083  RH  088%=      5-min Rain = 0
KVP1 201110Z 20006KT M07/M08 A3024 RMK A01 T10671084  RH  088%=      5-min Rain = 0
KVP1 201111Z 20007KT M07/M08 A3024 RMK A01 T10681084  RH  088%=      5-min Rain = 0
KVP1 201112Z 20007KT M07/M08 A3024 RMK A01 T10681084  RH  088%=      5-min Rain = 0
KVP1 201113Z 20007KT M07/M09 A3024 RMK A01 T10691085  RH  089%=      5-min Rain = 0
KVP1 201114Z 20007KT M07/M08 A3024 RMK A01 T10691084  RH  089%=      5-min Rain = 0
KVP1 201115Z 20007KT M07/M08 A3024 RMK A01 T10691084  RH  089%=      5-min Rain = 0
KVP1 201116Z 20007KT M07/M08 A3024 RMK A01 T10691084  RH  089%=      5-min Rain = 0
KVP1 201117Z 20007KT M07/M08 A3023 RMK A01 T10691084  RH  089%=      5-min Rain = 0
KVP1 201118Z 20008KT M07/M08 A3023 RMK A01 T10691084  RH  089%=      5-min Rain = 0
KVP1 201119Z 20008KT M07/M08 A3023 RMK A01 T10691084  RH  090%=      5-min Rain = 0
KVP1 201120Z 20008KT M07/M08 A3023 RMK A01 T10691083  RH  090%=      5-min Rain = 0
KVP1 201121Z 20008KT M07/M08 A3023 RMK A01 T10681082  RH  090%=      5-min Rain = 0
KVP1 201122Z 20008KT M07/M08 A3023 RMK A01 T10671081  RH  090%=      5-min Rain = 0
KVP1 201123Z 20008KT M07/M08 A3023 RMK A01 T10671081  RH  090%=      5-min Rain = 0
KVP1 201124Z 20007KT M07/M08 A3023 RMK A01 T10661080  RH  090%=      5-min Rain = 0
KVP1 201125Z 20008KT M07/M08 A3023 RMK A01 T10651079  RH  090%=      5-min Rain = 0
KVP1 201126Z 21008KT M07/M08 A3023 RMK A01 T10651079  RH  090%=      5-min Rain = 0
KVP1 201127Z 21008KT M06/M08 A3023 RMK A01 T10641079  RH  089%=      5-min Rain = 0
KVP1 201128Z 21008KT M06/M08 A3023 RMK A01 T10641079  RH  089%=      5-min Rain = 0
KVP1 201129Z 21008KT M06/M08 A3023 RMK A01 T10641079  RH  089%=      5-min Rain = 0
KVP1 201130Z 21007KT M06/M08 A3023 RMK A01 T10641079  RH  089%=      5-min Rain = 0
KVP1 201131Z 21007KT M06/M08 A3023 RMK A01 T10631078  RH  089%=      5-min Rain = 0
KVP1 201132Z 21007KT M06/M08 A3023 RMK A01 T10631078  RH  089%=      5-min Rain = 0
KVP1 201133Z 21007KT M06/M08 A3023 RMK A01 T10621077  RH  089%=      5-min Rain = 0
KVP1 201134Z 21007KT M06/M08 A3023 RMK A01 T10621076  RH  089%=      5-min Rain = 0
KVP1 201135Z 20007KT M06/M08 A3023 RMK A01 T10621076  RH  090%=      5-min Rain = 0
KVP1 201136Z 20007KT M06/M08 A3023 RMK A01 T10611075  RH  090%=      5-min Rain = 0
KVP1 201137Z 20007KT M06/M08 A3023 RMK A01 T10601075  RH  090%=      5-min Rain = 0
KVP1 201138Z 20007KT M06/M08 A3023 RMK A01 T10601075  RH  089%=      5-min Rain = 0
KVP1 201139Z 20007KT M06/M07 A3023 RMK A01 T10591074  RH  089%=      5-min Rain = 0
KVP1 201140Z 20007KT M06/M07 A3023 RMK A01 T10591074  RH  089%=      5-min Rain = 0
KVP1 201141Z 20007KT M06/M08 A3023 RMK A01 T10591075  RH  089%=      5-min Rain = 0
KVP1 201142Z 21006KT M06/M08 A3023 RMK A01 T10591075  RH  089%=      5-min Rain = 0
KVP1 201143Z 20007KT M06/M07 A3023 RMK A01 T10581074  RH  089%=      5-min Rain = 0
KVP1 201144Z 20007KT M06/M08 A3022 RMK A01 T10591075  RH  088%=      5-min Rain = 0
KVP1 201145Z 20007KT M06/M08 A3022 RMK A01 T10591075  RH  088%=      5-min Rain = 0
KVP1 201146Z 20007KT M06/M08 A3022 RMK A01 T10591075  RH  088%=      5-min Rain = 0
KVP1 201147Z 20008KT M06/M08 A3022 RMK A01 T10591075  RH  088%=      5-min Rain = 0
KVP1 201148Z 20008KT M06/M08 A3022 RMK A01 T10591075  RH  088%=      5-min Rain = 0
KVP1 201149Z 20008KT M06/M08 A3022 RMK A01 T10591075  RH  088%=      5-min Rain = 0
KVP1 201150Z 20008KT M06/M08 A3022 RMK A01 T10581075  RH  088%=      5-min Rain = 0
KVP1 201151Z 20008KT M06/M08 A3022 RMK A01 T10581075  RH  088%=      5-min Rain = 0
KVP1 201152Z 20008KT M06/M08 A3022 RMK A01 T10581075  RH  088%=      5-min Rain = 0
KVP1 201153Z 20008KT M06/M08 A3022 RMK A01 T10581075  RH  088%=      5-min Rain = 0
KVP1 201154Z 21008KT M06/M08 A3022 RMK A01 T10581076  RH  087%=      5-min Rain = 0
KVP1 201155Z 21008KT M06/M08 A3022 RMK A01 T10571075  RH  087%=      5-min Rain = 0
KVP1 201156Z 21008KT M06/M08 A3022 RMK A01 T10581076  RH  087%=      5-min Rain = 0
KVP1 201157Z 20008KT M06/M08 A3022 RMK A01 T10581076  RH  087%=      5-min Rain = 0
KVP1 201158Z 20008KT M06/M08 A3022 RMK A01 T10571076  RH  087%=      5-min Rain = 0
KVP1 201159Z 20008KT M06/M08 A3022 RMK A01 T10581076  RH  087%=      5-min Rain = 0
KVP1 201200Z 20008KT M06/M08 A3022 RMK A01 T10581077  RH  087%=      5-min Rain = 0
KVP1 201201Z 21008KT M06/M08 A3022 RMK A01 T10581077  RH  087%=      5-min Rain = 0
KVP1 201202Z 21008KT M06/M08 A3021 RMK A01 T10591077  RH  087%=      5-min Rain = 0
KVP1 201203Z 21008KT M06/M08 A3021 RMK A01 T10581077  RH  087%=      5-min Rain = 0
KVP1 201204Z 21008KT M06/M08 A3021 RMK A01 T10581077  RH  087%=      5-min Rain = 0
KVP1 201205Z 21008KT M06/M08 A3021 RMK A01 T10581077  RH  086%=      5-min Rain = 0
KVP1 201206Z 21008KT M06/M08 A3021 RMK A01 T10581078  RH  086%=      5-min Rain = 0
KVP1 201207Z 21008KT M06/M08 A3021 RMK A01 T10581078  RH  086%=      5-min Rain = 0
KVP1 201208Z 21008KT M06/M08 A3021 RMK A01 T10581078  RH  086%=      5-min Rain = 0
KVP1 201209Z 21008KT M06/M08 A3021 RMK A01 T10581078  RH  086%=      5-min Rain = 0
KVP1 201210Z 21008KT M06/M08 A3021 RMK A01 T10581078  RH  086%=      5-min Rain = 0
KVP1 201211Z 21008KT M06/M08 A3021 RMK A01 T10581078  RH  086%=      5-min Rain = 0
KVP1 201212Z 20008KT M06/M08 A3021 RMK A01 T10581077  RH  086%=      5-min Rain = 0
KVP1 201213Z 20008KT M06/M08 A3021 RMK A01 T10581078  RH  086%=      5-min Rain = 0
KVP1 201214Z 20007KT M06/M08 A3021 RMK A01 T10581078  RH  086%=      5-min Rain = 0
KVP1 201215Z 20007KT M06/M08 A3022 RMK A01 T10591078  RH  086%=      5-min Rain = 0
KVP1 201216Z 20007KT M06/M08 A3022 RMK A01 T10591078  RH  086%=      5-min Rain = 0
KVP1 201217Z 20007KT M06/M08 A3022 RMK A01 T10591079  RH  086%=      5-min Rain = 0
KVP1 201218Z 20007KT M06/M08 A3022 RMK A01 T10591079  RH  086%=      5-min Rain = 0
KVP1 201219Z 20007KT M06/M08 A3022 RMK A01 T10601079  RH  086%=      5-min Rain = 0
KVP1 201220Z 21007KT M06/M08 A3022 RMK A01 T10601079  RH  086%=      5-min Rain = 0
KVP1 201221Z 21008KT M06/M08 A3022 RMK A01 T10601079  RH  087%=      5-min Rain = 0
KVP1 201222Z 20008KT M06/M08 A3021 RMK A01 T10601079  RH  087%=      5-min Rain = 0
KVP1 201223Z 20008KT M06/M08 A3021 RMK A01 T10601079  RH  087%=      5-min Rain = 0
KVP1 201224Z 20008KT M06/M08 A3021 RMK A01 T10601079  RH  087%=      5-min Rain = 0
KVP1 201225Z 20008KT M06/M08 A3022 RMK A01 T10601079  RH  087%=      5-min Rain = 0
KVP1 201226Z 20008KT M06/M08 A3022 RMK A01 T10601079  RH  087%=      5-min Rain = 0
KVP1 201227Z 20008KT M06/M08 A3022 RMK A01 T10601079  RH  087%=      5-min Rain = 0
KVP1 201228Z 20008KT M06/M08 A3022 RMK A01 T10601079  RH  087%=      5-min Rain = 0
KVP1 201229Z 20008KT M06/M08 A3022 RMK A01 T10601079  RH  086%=      5-min Rain = 0
KVP1 201230Z 20007KT M06/M08 A3022 RMK A01 T10591078  RH  086%=      5-min Rain = 0
KVP1 201231Z 20007KT M06/M08 A3022 RMK A01 T10591078  RH  086%=      5-min Rain = 0
KVP1 201232Z 20007KT M06/M08 A3022 RMK A01 T10591079  RH  086%=      5-min Rain = 0
KVP1 201233Z 20008KT M06/M08 A3022 RMK A01 T10591079  RH  086%=      5-min Rain = 0
KVP1 201234Z 20008KT M06/M08 A3022 RMK A01 T10591078  RH  086%=      5-min Rain = 0
KVP1 201235Z 20006KT M06/M08 A3022 RMK A01 T10581078  RH  086%=      5-min Rain = 0
KVP1 201236Z 20007KT M06/M08 A3022 RMK A01 T10581078  RH  086%=      5-min Rain = 0
KVP1 201237Z 20008KT M06/M08 A3022 RMK A01 T10581078  RH  086%=      5-min Rain = 0
KVP1 201238Z 20007KT M06/M08 A3022 RMK A01 T10581078  RH  086%=      5-min Rain = 0
KVP1 201239Z 20008KT M06/M08 A3022 RMK A01 T10581078  RH  086%=      5-min Rain = 0
KVP1 201240Z 20007KT M06/M08 A3022 RMK A01 T10591079  RH  086%=      5-min Rain = 0
KVP1 201241Z 21008KT M06/M08 A3022 RMK A01 T10591078  RH  086%=      5-min Rain = 0
KVP1 201242Z 21008KT M06/M08 A3022 RMK A01 T10591079  RH  086%=      5-min Rain = 0
KVP1 201243Z 21008KT M06/M08 A3022 RMK A01 T10591078  RH  086%=      5-min Rain = 0
KVP1 201244Z 21008KT M06/M08 A3022 RMK A01 T10591079  RH  086%=      5-min Rain = 0
KVP1 201245Z 21008KT M06/M08 A3022 RMK A01 T10591078  RH  086%=      5-min Rain = 0
KVP1 201246Z 21009KT M06/M08 A3022 RMK A01 T10591078  RH  086%=      5-min Rain = 0
KVP1 201247Z 21009KT M06/M08 A3022 RMK A01 T10581078  RH  086%=      5-min Rain = 0
KVP1 201248Z 21008KT M06/M08 A3022 RMK A01 T10571078  RH  085%=      5-min Rain = 0
KVP1 201249Z 21008KT M06/M08 A3022 RMK A01 T10571078  RH  085%=      5-min Rain = 0
KVP1 201250Z 21009KT M06/M08 A3022 RMK A01 T10571078  RH  085%=      5-min Rain = 0
KVP1 201251Z 21008KT M06/M08 A3022 RMK A01 T10561078  RH  085%=      5-min Rain = 0
KVP1 201252Z 21008KT M06/M08 A3022 RMK A01 T10561077  RH  085%=      5-min Rain = 0
KVP1 201253Z 21008KT M06/M08 A3022 RMK A01 T10561077  RH  085%=      5-min Rain = 0
KVP1 201254Z 21008KT M06/M08 A3022 RMK A01 T10561078  RH  085%=      5-min Rain = 0
KVP1 201255Z 21008KT M06/M08 A3022 RMK A01 T10561078  RH  085%=      5-min Rain = 0
KVP1 201256Z 21008KT M06/M08 A3022 RMK A01 T10561078  RH  085%=      5-min Rain = 0
KVP1 201257Z 21008KT M06/M08 A3022 RMK A01 T10561078  RH  085%=      5-min Rain = 0
KVP1 201258Z 21008KT M06/M08 A3022 RMK A01 T10571078  RH  085%=      5-min Rain = 0
KVP1 201259Z 21008KT M06/M08 A3022 RMK A01 T10571078  RH  085%=      5-min Rain = 0
KVP1 201300Z 21008KT M06/M08 A3022 RMK A01 T10571078  RH  085%=      5-min Rain = 0
KVP1 201301Z 21008KT M06/M08 A3022 RMK A01 T10571078  RH  085%=      5-min Rain = 0
KVP1 201302Z 21008KT M06/M08 A3022 RMK A01 T10581079  RH  085%=      5-min Rain = 0
KVP1 201303Z 21009KT M06/M08 A3022 RMK A01 T10571079  RH  085%=      5-min Rain = 0
KVP1 201304Z 21008KT M06/M08 A3022 RMK A01 T10571079  RH  085%=      5-min Rain = 0
KVP1 201305Z 21009KT M06/M08 A3022 RMK A01 T10571079  RH  085%=      5-min Rain = 0
KVP1 201306Z 21008KT M06/M08 A3022 RMK A01 T10571079  RH  084%=      5-min Rain = 0
KVP1 201307Z 21009KT M06/M08 A3022 RMK A01 T10561079  RH  084%=      5-min Rain = 0
KVP1 201308Z 21008KT M06/M08 A3022 RMK A01 T10561079  RH  084%=      5-min Rain = 0
KVP1 201309Z 21008KT M06/M08 A3022 RMK A01 T10561078  RH  084%=      5-min Rain = 0
KVP1 201310Z 21007KT M06/M08 A3022 RMK A01 T10561079  RH  084%=      5-min Rain = 0
KVP1 201311Z 21008KT M06/M08 A3022 RMK A01 T10561079  RH  084%=      5-min Rain = 0
KVP1 201312Z 21007KT M06/M08 A3022 RMK A01 T10561078  RH  084%=      5-min Rain = 0
KVP1 201313Z 21007KT M06/M08 A3022 RMK A01 T10561079  RH  084%=      5-min Rain = 0
KVP1 201314Z 21007KT M06/M08 A3022 RMK A01 T10561079  RH  084%=      5-min Rain = 0
KVP1 201315Z 21007KT M06/M08 A3022 RMK A01 T10561079  RH  084%=      5-min Rain = 0
KVP1 201316Z 21007KT M06/M08 A3022 RMK A01 T10571079  RH  084%=      5-min Rain = 0
KVP1 201317Z 21007KT M06/M08 A3023 RMK A01 T10571079  RH  084%=      5-min Rain = 0
KVP1 201318Z 21007KT M06/M08 A3023 RMK A01 T10581080  RH  085%=      5-min Rain = 0
KVP1 201319Z 21006KT M06/M08 A3023 RMK A01 T10581079  RH  085%=      5-min Rain = 0
KVP1 201320Z 21006KT M06/M08 A3023 RMK A01 T10591080  RH  085%=      5-min Rain = 0
KVP1 201321Z 21007KT M06/M08 A3023 RMK A01 T10591081  RH  085%=      5-min Rain = 0
KVP1 201322Z 21007KT M06/M08 A3023 RMK A01 T10601081  RH  085%=      5-min Rain = 0
KVP1 201323Z 21007KT M06/M08 A3023 RMK A01 T10611081  RH  086%=      5-min Rain = 0
KVP1 201324Z 21008KT M06/M08 A3023 RMK A01 T10611081  RH  086%=      5-min Rain = 0
KVP1 201325Z 21008KT M06/M08 A3023 RMK A01 T10621081  RH  086%=      5-min Rain = 0
KVP1 201326Z 21008KT M06/M08 A3022 RMK A01 T10621081  RH  086%=      5-min Rain = 0
KVP1 201327Z 21008KT M06/M08 A3022 RMK A01 T10621081  RH  086%=      5-min Rain = 0
KVP1 201328Z 21008KT M06/M08 A3022 RMK A01 T10611081  RH  086%=      5-min Rain = 0
KVP1 201329Z 21008KT M06/M08 A3023 RMK A01 T10611080  RH  086%=      5-min Rain = 0
KVP1 201330Z 21008KT M06/M08 A3023 RMK A01 T10601080  RH  086%=      5-min Rain = 0
KVP1 201331Z 21008KT M06/M08 A3023 RMK A01 T10601081  RH  086%=      5-min Rain = 0
KVP1 201332Z 21008KT M06/M08 A3022 RMK A01 T10601081  RH  086%=      5-min Rain = 0
KVP1 201333Z 21008KT M06/M08 A3022 RMK A01 T10601081  RH  086%=      5-min Rain = 0
KVP1 201334Z 21008KT M06/M08 A3022 RMK A01 T10601081  RH  086%=      5-min Rain = 0
KVP1 201335Z 21008KT M06/M08 A3022 RMK A01 T10601081  RH  086%=      5-min Rain = 0
KVP1 201336Z 21008KT M06/M08 A3022 RMK A01 T10611081  RH  086%=      5-min Rain = 0
KVP1 201337Z 21008KT M06/M08 A3022 RMK A01 T10611081  RH  086%=      5-min Rain = 0
KVP1 201338Z 20008KT M06/M08 A3022 RMK A01 T10611081  RH  086%=      5-min Rain = 0
KVP1 201339Z 21008KT M06/M08 A3022 RMK A01 T10611081  RH  086%=      5-min Rain = 0
KVP1 201340Z 21008KT M06/M08 A3022 RMK A01 T10611081  RH  086%=      5-min Rain = 0
KVP1 201341Z 21008KT M06/M08 A3022 RMK A01 T10611081  RH  086%=      5-min Rain = 0
KVP1 201342Z 21008KT M06/M08 A3022 RMK A01 T10611081  RH  086%=      5-min Rain = 0
KVP1 201343Z 21008KT M06/M08 A3022 RMK A01 T10611081  RH  086%=      5-min Rain = 0
KVP1 201344Z 21008KT M06/M08 A3022 RMK A01 T10611080  RH  086%=      5-min Rain = 0
KVP1 201345Z 21008KT M06/M08 A3022 RMK A01 T10601080  RH  086%=      5-min Rain = 0
KVP1 201346Z 21008KT M06/M08 A3022 RMK A01 T10601080  RH  086%=      5-min Rain = 0
KVP1 201347Z 21008KT M06/M08 A3022 RMK A01 T10591080  RH  086%=      5-min Rain = 0
KVP1 201348Z 21008KT M06/M08 A3022 RMK A01 T10591079  RH  086%=      5-min Rain = 0
KVP1 201349Z 21008KT M06/M08 A3022 RMK A01 T10591080  RH  086%=      5-min Rain = 0
KVP1 201350Z 21007KT M06/M08 A3022 RMK A01 T10591080  RH  086%=      5-min Rain = 0
KVP1 201351Z 21008KT M06/M08 A3022 RMK A01 T10591080  RH  086%=      5-min Rain = 0
KVP1 201352Z 21008KT M06/M08 A3022 RMK A01 T10591079  RH  086%=      5-min Rain = 0
KVP1 201353Z 21007KT M06/M08 A3022 RMK A01 T10591080  RH  086%=      5-min Rain = 0
KVP1 201354Z 21008KT M06/M08 A3022 RMK A01 T10591080  RH  086%=      5-min Rain = 0
KVP1 201355Z 21008KT M06/M08 A3022 RMK A01 T10591080  RH  086%=      5-min Rain = 0
KVP1 201356Z 21008KT M06/M08 A3022 RMK A01 T10591079  RH  086%=      5-min Rain = 0
KVP1 201357Z 21008KT M06/M08 A3022 RMK A01 T10591079  RH  086%=      5-min Rain = 0
KVP1 201358Z 21008KT M06/M08 A3022 RMK A01 T10601080  RH  086%=      5-min Rain = 0
KVP1 201359Z 21007KT M06/M08 A3022 RMK A01 T10601080  RH  086%=      5-min Rain = 0
KVP1 201400Z 21007KT M06/M08 A3022 RMK A01 T10601079  RH  086%=      5-min Rain = 0
KVP1 201401Z 21007KT M06/M08 A3022 RMK A01 T10601080  RH  086%=      5-min Rain = 0
KVP1 201402Z 21007KT M06/M08 A3022 RMK A01 T10601079  RH  086%=      5-min Rain = 0
KVP1 201403Z 21007KT M06/M08 A3022 RMK A01 T10611080  RH  086%=      5-min Rain = 0
KVP1 201404Z 21007KT M06/M08 A3022 RMK A01 T10611079  RH  087%=      5-min Rain = 0
KVP1 201405Z 21007KT M06/M08 A3022 RMK A01 T10611080  RH  087%=      5-min Rain = 0
KVP1 201406Z 21007KT M06/M08 A3022 RMK A01 T10611079  RH  087%=      5-min Rain = 0
KVP1 201407Z 21007KT M06/M08 A3022 RMK A01 T10611079  RH  087%=      5-min Rain = 0
KVP1 201408Z 21007KT M06/M08 A3022 RMK A01 T10611079  RH  087%=      5-min Rain = 0
KVP1 201409Z 21007KT M06/M08 A3022 RMK A01 T10611078  RH  087%=      5-min Rain = 0
KVP1 201410Z 22007KT M06/M08 A3022 RMK A01 T10601078  RH  088%=      5-min Rain = 0
KVP1 201411Z 22007KT M06/M08 A3022 RMK A01 T10601078  RH  088%=      5-min Rain = 0
KVP1 201412Z 22007KT M06/M08 A3022 RMK A01 T10601077  RH  088%=      5-min Rain = 0
KVP1 201413Z 22007KT M06/M08 A3022 RMK A01 T10591077  RH  088%=      5-min Rain = 0
KVP1 201414Z 22007KT M06/M08 A3023 RMK A01 T10591076  RH  088%=      5-min Rain = 0
KVP1 201415Z 22007KT M06/M08 A3023 RMK A01 T10581076  RH  088%=      5-min Rain = 0
KVP1 201416Z 22008KT M06/M08 A3023 RMK A01 T10581075  RH  088%=      5-min Rain = 0
KVP1 201417Z 22007KT M06/M07 A3023 RMK A01 T10571074  RH  087%=      5-min Rain = 0
KVP1 201418Z 22008KT M06/M07 A3023 RMK A01 T10561073  RH  087%=      5-min Rain = 0
KVP1 201419Z 22008KT M06/M07 A3023 RMK A01 T10551073  RH  087%=      5-min Rain = 0
KVP1 201420Z 22009KT M05/M07 A3023 RMK A01 T10541072  RH  087%=      5-min Rain = 0
KVP1 201421Z 22008KT M05/M07 A3023 RMK A01 T10521071  RH  087%=      5-min Rain = 0
KVP1 201422Z 22008KT M05/M07 A3023 RMK A01 T10511071  RH  086%=      5-min Rain = 0
KVP1 201423Z 21009KT M05/M07 A3023 RMK A01 T10511071  RH  086%=      5-min Rain = 0
KVP1 201424Z 22009KT M05/M07 A3023 RMK A01 T10491070  RH  085%=      5-min Rain = 0
KVP1 201425Z 22009KT M05/M07 A3023 RMK A01 T10491070  RH  085%=      5-min Rain = 0
KVP1 201426Z 21010KT M05/M07 A3022 RMK A01 T10491070  RH  085%=      5-min Rain = 0
KVP1 201427Z 22009KT M05/M07 A3022 RMK A01 T10481069  RH  085%=      5-min Rain = 0
KVP1 201428Z 22008KT M05/M07 A3023 RMK A01 T10471068  RH  085%=      5-min Rain = 0
KVP1 201429Z 22010KT M05/M07 A3023 RMK A01 T10471068  RH  085%=      5-min Rain = 0
KVP1 201430Z 22009KT M05/M07 A3023 RMK A01 T10461067  RH  085%=      5-min Rain = 0
KVP1 201431Z 22011KT M05/M07 A3023 RMK A01 T10451067  RH  085%=      5-min Rain = 0
KVP1 201432Z 22010KT M04/M07 A3023 RMK A01 T10441066  RH  085%=      5-min Rain = 0
KVP1 201433Z 22010KT M04/M07 A3023 RMK A01 T10431065  RH  085%=      5-min Rain = 0
KVP1 201434Z 21011KT M04/M06 A3023 RMK A01 T10431064  RH  085%=      5-min Rain = 0
KVP1 201435Z 22010KT M04/M06 A3022 RMK A01 T10421064  RH  085%=      5-min Rain = 0
KVP1 201436Z 21011KT M04/M06 A3022 RMK A01 T10411063  RH  085%=      5-min Rain = 0
KVP1 201437Z 21009KT M04/M06 A3022 RMK A01 T10401062  RH  085%=      5-min Rain = 0
KVP1 201438Z 21010KT M04/M06 A3022 RMK A01 T10401062  RH  085%=      5-min Rain = 0
KVP1 201439Z 22011KT M04/M06 A3022 RMK A01 T10401061  RH  085%=      5-min Rain = 0
KVP1 201440Z 21011KT M04/M06 A3022 RMK A01 T10391061  RH  085%=      5-min Rain = 0
KVP1 201441Z 21010KT M04/M06 A3022 RMK A01 T10391061  RH  085%=      5-min Rain = 0
KVP1 201442Z 21011KT M04/M06 A3022 RMK A01 T10381060  RH  085%=      5-min Rain = 0
KVP1 201443Z 21011KT M04/M06 A3022 RMK A01 T10371059  RH  085%=      5-min Rain = 0
KVP1 201444Z 21010KT M04/M06 A3023 RMK A01 T10371059  RH  085%=      5-min Rain = 0
KVP1 201445Z 22010KT M04/M06 A3023 RMK A01 T10361059  RH  085%=      5-min Rain = 0
KVP1 201446Z 22010KT M04/M06 A3023 RMK A01 T10361058  RH  085%=      5-min Rain = 0
KVP1 201447Z 22011KT M04/M06 A3022 RMK A01 T10361058  RH  085%=      5-min Rain = 0
KVP1 201448Z 22011KT M04/M06 A3022 RMK A01 T10351058  RH  084%=      5-min Rain = 0
KVP1 201449Z 22010KT M04/M06 A3022 RMK A01 T10351057  RH  085%=      5-min Rain = 0
KVP1 201450Z 21010KT M03/M06 A3022 RMK A01 T10341056  RH  085%=      5-min Rain = 0
KVP1 201451Z 22011KT M03/M06 A3022 RMK A01 T10341056  RH  085%=      5-min Rain = 0
KVP1 201452Z 22010KT M03/M06 A3022 RMK A01 T10341056  RH  085%=      5-min Rain = 0
KVP1 201453Z 22010KT M03/M06 A3022 RMK A01 T10331055  RH  085%=      5-min Rain = 0
KVP1 201454Z 22011KT M03/M06 A3022 RMK A01 T10331055  RH  085%=      5-min Rain = 0
KVP1 201455Z 22011KT M03/M05 A3022 RMK A01 T10321054  RH  085%=      5-min Rain = 0
KVP1 201456Z 22010KT M03/M05 A3022 RMK A01 T10321053  RH  085%=      5-min Rain = 0
KVP1 201457Z 22011KT M03/M05 A3022 RMK A01 T10311053  RH  085%=      5-min Rain = 0
KVP1 201458Z 22011KT M03/M05 A3022 RMK A01 T10311053  RH  085%=      5-min Rain = 0
KVP1 201459Z 22011KT M03/M05 A3022 RMK A01 T10311053  RH  085%=      5-min Rain = 0
KVP1 201500Z 22011KT M03/M05 A3022 RMK A01 T10311053  RH  085%=      5-min Rain = 0
KVP1 201501Z 22012KT M03/M05 A3022 RMK A01 T10301053  RH  085%=      5-min Rain = 0
KVP1 201502Z 22011KT M03/M05 A3022 RMK A01 T10301052  RH  084%=      5-min Rain = 0
KVP1 201503Z 22011KT M03/M05 A3022 RMK A01 T10301052  RH  084%=      5-min Rain = 0
KVP1 201504Z 22011KT M03/M05 A3022 RMK A01 T10291052  RH  084%=      5-min Rain = 0
KVP1 201505Z 22013KT M03/M05 A3022 RMK A01 T10291051  RH  085%=      5-min Rain = 0
KVP1 201506Z 22013KT M03/M05 A3022 RMK A01 T10281051  RH  084%=      5-min Rain = 0
KVP1 201507Z 22012KT M03/M05 A3022 RMK A01 T10271051  RH  084%=      5-min Rain = 0
KVP1 201508Z 22013KT M03/M05 A3022 RMK A01 T10271051  RH  084%=      5-min Rain = 0
KVP1 201509Z 22013KT M03/M05 A3022 RMK A01 T10271050  RH  084%=      5-min Rain = 0
KVP1 201510Z 22011KT M03/M05 A3022 RMK A01 T10261050  RH  084%=      5-min Rain = 0
KVP1 201511Z 22013KT M03/M05 A3022 RMK A01 T10271050  RH  084%=      5-min Rain = 0
KVP1 201512Z 22011KT M03/M05 A3022 RMK A01 T10261050  RH  084%=      5-min Rain = 0
KVP1 201513Z 22012KT M03/M05 A3022 RMK A01 T10261049  RH  084%=      5-min Rain = 0
KVP1 201514Z 22012KT M03/M05 A3022 RMK A01 T10261049  RH  084%=      5-min Rain = 0
KVP1 201515Z 22012KT M03/M05 A3022 RMK A01 T10251049  RH  084%=      5-min Rain = 0
KVP1 201516Z 22011KT M03/M05 A3022 RMK A01 T10251048  RH  084%=      5-min Rain = 0
KVP1 201517Z 22011KT M02/M05 A3022 RMK A01 T10241047  RH  084%=      5-min Rain = 0
KVP1 201518Z 22012KT M02/M05 A3022 RMK A01 T10241047  RH  084%=      5-min Rain = 0
KVP1 201519Z 22011KT M02/M05 A3022 RMK A01 T10231047  RH  084%=      5-min Rain = 0
KVP1 201520Z 22011KT M02/M05 A3022 RMK A01 T10231047  RH  084%=      5-min Rain = 0
KVP1 201521Z 22010KT M02/M05 A3022 RMK A01 T10231046  RH  084%=      5-min Rain = 0
KVP1 201522Z 23011KT M02/M04 A3022 RMK A01 T10221044  RH  085%=      5-min Rain = 0
KVP1 201523Z 22010KT M02/M04 A3022 RMK A01 T10211044  RH  084%=      5-min Rain = 0
KVP1 201524Z 22012KT M02/M04 A3022 RMK A01 T10211044  RH  084%=      5-min Rain = 0
KVP1 201525Z 22014KT M02/M05 A3022 RMK A01 T10201045  RH  083%=      5-min Rain = 0
KVP1 201526Z 22013KT M02/M05 A3022 RMK A01 T10201045  RH  083%=      5-min Rain = 0
KVP1 201527Z 22013KT M02/M05 A3022 RMK A01 T10191045  RH  083%=      5-min Rain = 0
KVP1 201528Z 22010KT M02/M04 A3022 RMK A01 T10191044  RH  083%=      5-min Rain = 0
KVP1 201529Z 22013KT M02/M04 A3022 RMK A01 T10181043  RH  083%=      5-min Rain = 0
KVP1 201530Z 22014KT M02/M04 A3022 RMK A01 T10171043  RH  082%=      5-min Rain = 0
KVP1 201531Z 22014KT M02/M04 A3021 RMK A01 T10171044  RH  082%=      5-min Rain = 0
KVP1 201532Z 22011KT M02/M04 A3022 RMK A01 T10161043  RH  082%=      5-min Rain = 0
KVP1 201533Z 22013KT M02/M04 A3022 RMK A01 T10151042  RH  082%=      5-min Rain = 0
KVP1 201534Z 22011KT M02/M04 A3022 RMK A01 T10151043  RH  081%=      5-min Rain = 0
KVP1 201535Z 22015KT M02/M04 A3022 RMK A01 T10151043  RH  081%=      5-min Rain = 0
KVP1 201536Z 22014KT M01/M04 A3021 RMK A01 T10141043  RH  081%=      5-min Rain = 0
KVP1 201537Z 22013KT M01/M04 A3021 RMK A01 T10141043  RH  081%=      5-min Rain = 0
KVP1 201538Z 22011KT M01/M04 A3021 RMK A01 T10131042  RH  081%=      5-min Rain = 0
KVP1 201539Z 22013KT M01/M04 A3021 RMK A01 T10121040  RH  081%=      5-min Rain = 0
KVP1 201540Z 22013KT M01/M04 A3021 RMK A01 T10111040  RH  081%=      5-min Rain = 0
KVP1 201541Z 22012KT M01/M04 A3021 RMK A01 T10111040  RH  080%=      5-min Rain = 0
KVP1 201542Z 22013KT M01/M04 A3021 RMK A01 T10101039  RH  081%=      5-min Rain = 0
KVP1 201543Z 22013KT M01/M04 A3021 RMK A01 T10091039  RH  080%=      5-min Rain = 0
KVP1 201544Z 22013KT M01/M04 A3021 RMK A01 T10091040  RH  080%=      5-min Rain = 0
KVP1 201545Z 22013KT M01/M04 A3021 RMK A01 T10091039  RH  080%=      5-min Rain = 0
KVP1 201546Z 22013KT M01/M04 A3021 RMK A01 T10081039  RH  080%=      5-min Rain = 0
KVP1 201547Z 22012KT M01/M04 A3021 RMK A01 T10071038  RH  080%=      5-min Rain = 0
KVP1 201548Z 22013KT M01/M04 A3021 RMK A01 T10061037  RH  079%=      5-min Rain = 0
KVP1 201549Z 22013KT M01/M04 A3021 RMK A01 T10051037  RH  079%=      5-min Rain = 0
KVP1 201550Z 22014KT M00/M04 A3021 RMK A01 T10041036  RH  079%=      5-min Rain = 0
KVP1 201551Z 22011KT M00/M04 A3021 RMK A01 T10031035  RH  079%=      5-min Rain = 0
KVP1 201552Z 22013KT M00/M03 A302 RMK A01 T10011033  RH  079%=      5-min Rain = 0
KVP1 201553Z 21013G18KT 00/M03 A302 RMK A01 T00011033  RH  078%=      5-min Rain = 0
KVP1 201554Z 22013G18KT 00/M03 A302 RMK A01 T00021034  RH  077%=      5-min Rain = 0
KVP1 201555Z 21014KT 00/M03 A302 RMK A01 T00021033  RH  077%=      5-min Rain = 0
KVP1 201556Z 22012KT 00/M03 A302 RMK A01 T00041033  RH  077%=      5-min Rain = 0
KVP1 201557Z 22011KT 01/M03 A302 RMK A01 T00051030  RH  077%=      5-min Rain = 0
KVP1 201558Z 21014KT 01/M03 A302 RMK A01 T00071030  RH  076%=      5-min Rain = 0
KVP1 201559Z 21013KT 01/M03 A302 RMK A01 T00071032  RH  075%=      5-min Rain = 0
KVP1 201600Z 22016KT 01/M03 A302 RMK A01 T00071033  RH  074%=      5-min Rain = 0
KVP1 201601Z 22015KT 01/M04 A302 RMK A01 T00071035  RH  073%=      5-min Rain = 0
KVP1 201602Z 22016KT 01/M04 A302 RMK A01 T00071035  RH  073%=      5-min Rain = 0
KVP1 201603Z 22015KT 01/M03 A302 RMK A01 T00081034  RH  073%=      5-min Rain = 0
KVP1 201604Z 22014KT 01/M03 A302 RMK A01 T00091034  RH  073%=      5-min Rain = 0
KVP1 201605Z 22013KT 01/M03 A302 RMK A01 T00101032  RH  073%=      5-min Rain = 0
KVP1 201606Z 22014KT 01/M03 A302 RMK A01 T00131030  RH  073%=      5-min Rain = 0
KVP1 201607Z 22011KT 01/M03 A3021 RMK A01 T00141030  RH  073%=      5-min Rain = 0
KVP1 201608Z 21014KT 02/M03 A3021 RMK A01 T00161028  RH  072%=      5-min Rain = 0
KVP1 201609Z 22013KT 02/M03 A3021 RMK A01 T00171028  RH  072%=      5-min Rain = 0
KVP1 201610Z 21016KT 02/M03 A3021 RMK A01 T00181029  RH  071%=      5-min Rain = 0
KVP1 201611Z 22014KT 02/M03 A3021 RMK A01 T00191029  RH  070%=      5-min Rain = 0
KVP1 201612Z 22015KT 02/M03 A302 RMK A01 T00201029  RH  070%=      5-min Rain = 0
KVP1 201613Z 21017KT 02/M03 A302 RMK A01 T00221028  RH  069%=      5-min Rain = 0
KVP1 201614Z 21014KT 02/M03 A302 RMK A01 T00241029  RH  068%=      5-min Rain = 0
KVP1 201615Z 22014KT 03/M03 A302 RMK A01 T00261027  RH  068%=      5-min Rain = 0
KVP1 201616Z 22015KT 03/M03 A302 RMK A01 T00281027  RH  067%=      5-min Rain = 0
KVP1 201617Z 22016KT 03/M03 A302 RMK A01 T00291027  RH  067%=      5-min Rain = 0
KVP1 201618Z 21017KT 03/M03 A302 RMK A01 T00301028  RH  066%=      5-min Rain = 0
KVP1 201619Z 21019KT 03/M03 A302 RMK A01 T00301029  RH  065%=      5-min Rain = 0
KVP1 201620Z 21019G24KT 03/M03 A302 RMK A01 T00301031  RH  064%=      5-min Rain = 0
KVP1 201621Z 21019KT 03/M03 A302 RMK A01 T00301032  RH  064%=      5-min Rain = 0
KVP1 201622Z 21019KT 03/M03 A302 RMK A01 T00301032  RH  064%=      5-min Rain = 0
KVP1 201623Z 21020KT 03/M03 A3019 RMK A01 T00301032  RH  064%=      5-min Rain = 0
KVP1 201624Z 21017KT 03/M03 A302 RMK A01 T00301032  RH  064%=      5-min Rain = 0
KVP1 201625Z 21020KT 03/M03 A3019 RMK A01 T00321031  RH  064%=      5-min Rain = 0
KVP1 201626Z 21020G25KT 03/M03 A3019 RMK A01 T00321032  RH  063%=      5-min Rain = 0
KVP1 201627Z 21020KT 03/M03 A3019 RMK A01 T00321032  RH  063%=      5-min Rain = 0
KVP1 201628Z 21020KT 03/M03 A3019 RMK A01 T00331031  RH  063%=      5-min Rain = 0
KVP1 201629Z 21022KT 04/M03 A3019 RMK A01 T00351032  RH  062%=      5-min Rain = 0
KVP1 201630Z 21020G25KT 04/M03 A3019 RMK A01 T00351033  RH  061%=      5-min Rain = 0
KVP1 201631Z 21019G24KT 04/M03 A3019 RMK A01 T00361032  RH  061%=      5-min Rain = 0
KVP1 201632Z 21016KT 04/M03 A3019 RMK A01 T00371031  RH  061%=      5-min Rain = 0
KVP1 201633Z 21019KT 04/M03 A3019 RMK A01 T00391029  RH  061%=      5-min Rain = 0
KVP1 201634Z 21020KT 04/M03 A302 RMK A01 T00401030  RH  060%=      5-min Rain = 0
KVP1 201635Z 21021KT 04/M03 A302 RMK A01 T00401032  RH  059%=      5-min Rain = 0
KVP1 201636Z 21021KT 04/M03 A302 RMK A01 T00391033  RH  059%=      5-min Rain = 0
KVP1 201637Z 21021KT 04/M03 A302 RMK A01 T00391032  RH  060%=      5-min Rain = 0
KVP1 201638Z 21021KT 04/M03 A302 RMK A01 T00401032  RH  059%=      5-min Rain = 0
KVP1 201639Z 21018KT 04/M03 A302 RMK A01 T00411031  RH  059%=      5-min Rain = 0
KVP1 201640Z 21018KT 04/M03 A3019 RMK A01 T00421031  RH  059%=      5-min Rain = 0
KVP1 201641Z 21018KT 04/M03 A3019 RMK A01 T00431030  RH  059%=      5-min Rain = 0
KVP1 201642Z 21018KT 04/M03 A3019 RMK A01 T00441030  RH  059%=      5-min Rain = 0
KVP1 201643Z 21019KT 05/M03 A3019 RMK A01 T00451029  RH  059%=      5-min Rain = 0
KVP1 201644Z 21019KT 05/M03 A3019 RMK A01 T00461029  RH  058%=      5-min Rain = 0
KVP1 201645Z 21019KT 05/M03 A3019 RMK A01 T00471029  RH  058%=      5-min Rain = 0
KVP1 201646Z 21020KT 05/M03 A3019 RMK A01 T00481028  RH  058%=      5-min Rain = 0
KVP1 201647Z 21020KT 05/M03 A3019 RMK A01 T00501028  RH  057%=      5-min Rain = 0
KVP1 201648Z 21018KT 05/M03 A3019 RMK A01 T00511029  RH  056%=      5-min Rain = 0
KVP1 201649Z 21019KT 05/M03 A3019 RMK A01 T00521027  RH  057%=      5-min Rain = 0
KVP1 201650Z 21019KT 05/M03 A3019 RMK A01 T00541027  RH  056%=      5-min Rain = 0
KVP1 201651Z 21020KT 06/M03 A3019 RMK A01 T00561026  RH  056%=      5-min Rain = 0
KVP1 201652Z 21021KT 06/M03 A3019 RMK A01 T00591025  RH  055%=      5-min Rain = 0
KVP1 201653Z 21017G23KT 06/M03 A3018 RMK A01 T00591026  RH  054%=      5-min Rain = 0
KVP1 201654Z 21017KT 06/M02 A3018 RMK A01 T00631022  RH  054%=      5-min Rain = 0
KVP1 201655Z 21018KT 07/M02 A3018 RMK A01 T00671021  RH  053%=      5-min Rain = 0
KVP1 201656Z 22022KT 07/M03 A3018 RMK A01 T00681025  RH  052%=      5-min Rain = 0
KVP1 201657Z 22017KT 07/M03 A3018 RMK A01 T00671026  RH  052%=      5-min Rain = 0
KVP1 201658Z 21019KT 07/M02 A3018 RMK A01 T00691024  RH  052%=      5-min Rain = 0
KVP1 201659Z 22020KT 07/M03 A3018 RMK A01 T00691026  RH  051%=      5-min Rain = 0
KVP1 201700Z 22020KT 07/M03 A3018 RMK A01 T00691025  RH  051%=      5-min Rain = 0
KVP1 201701Z 21019KT 07/M03 A3018 RMK A01 T00691026  RH  051%=      5-min Rain = 0
KVP1 201702Z 21019KT 07/M03 A3018 RMK A01 T00711025  RH  051%=      5-min Rain = 0
KVP1 201703Z 21020G25KT 07/M03 A3018 RMK A01 T00731025  RH  050%=      5-min Rain = 0
KVP1 201704Z 21019KT 07/M03 A3018 RMK A01 T00731027  RH  049%=      5-min Rain = 0
KVP1 201705Z 22017G22KT 07/M03 A3018 RMK A01 T00741025  RH  050%=      5-min Rain = 0
KVP1 201706Z 21018KT 08/M03 A3018 RMK A01 T00761025  RH  049%=      5-min Rain = 0
KVP1 201707Z 22018KT 08/M03 A3018 RMK A01 T00751025  RH  049%=      5-min Rain = 0
KVP1 201708Z 21018KT 07/M03 A3018 RMK A01 T00741027  RH  049%=      5-min Rain = 0
KVP1 201709Z 21020KT 07/M03 A3018 RMK A01 T00731027  RH  049%=      5-min Rain = 0
KVP1 201710Z 21017KT 07/M03 A3018 RMK A01 T00731026  RH  049%=      5-min Rain = 0
KVP1 201711Z 21018KT 08/M02 A3018 RMK A01 T00761024  RH  049%=      5-min Rain = 0
KVP1 201712Z 21019G26KT 08/M03 A3018 RMK A01 T00781025  RH  048%=      5-min Rain = 0
KVP1 201713Z 21020KT 08/M03 A3018 RMK A01 T00781027  RH  048%=      5-min Rain = 0
KVP1 201714Z 21021KT 08/M03 A3018 RMK A01 T00781028  RH  047%=      5-min Rain = 0
KVP1 201715Z 22022KT 08/M03 A3018 RMK A01 T00781028  RH  047%=      5-min Rain = 0
KVP1 201716Z 21020KT 08/M03 A3018 RMK A01 T00761029  RH  047%=      5-min Rain = 0
KVP1 201717Z 21020KT 08/M03 A3018 RMK A01 T00761029  RH  047%=      5-min Rain = 0
KVP1 201718Z 21020KT 08/M03 A3018 RMK A01 T00771027  RH  048%=      5-min Rain = 0
KVP1 201719Z 21022KT 08/M03 A3018 RMK A01 T00781028  RH  047%=      5-min Rain = 0
KVP1 201720Z 22020KT 08/M03 A3018 RMK A01 T00771030  RH  047%=      5-min Rain = 0
KVP1 201721Z 22017KT 08/M03 A3018 RMK A01 T00771029  RH  047%=      5-min Rain = 0
KVP1 201722Z 21017KT 08/M03 A3018 RMK A01 T00791028  RH  047%=      5-min Rain = 0
KVP1 201723Z 22017KT 08/M03 A3018 RMK A01 T00791028  RH  047%=      5-min Rain = 0
KVP1 201724Z 22017KT 08/M03 A3018 RMK A01 T00801028  RH  046%=      5-min Rain = 0
KVP1 201725Z 22018KT 08/M03 A3018 RMK A01 T00811028  RH  046%=      5-min Rain = 0
KVP1 201726Z 22017KT 08/M03 A3018 RMK A01 T00811030  RH  045%=      5-min Rain = 0
KVP1 201727Z 22018KT 08/M03 A3018 RMK A01 T00821029  RH  045%=      5-min Rain = 0
KVP1 201728Z 22018KT 08/M03 A3018 RMK A01 T00821029  RH  045%=      5-min Rain = 0
KVP1 201729Z 21017KT 08/M03 A3017 RMK A01 T00831028  RH  046%=      5-min Rain = 0
KVP1 201730Z 22017KT 08/M03 A3017 RMK A01 T00841026  RH  046%=      5-min Rain = 0
KVP1 201731Z 22018G23KT 09/M03 A3017 RMK A01 T00851026  RH  045%=      5-min Rain = 0
KVP1 201732Z 22018KT 09/M03 A3017 RMK A01 T00871029  RH  044%=      5-min Rain = 0
KVP1 201733Z 22017KT 09/M03 A3017 RMK A01 T00861031  RH  044%=      5-min Rain = 0
KVP1 201734Z 21015KT 09/M03 A3017 RMK A01 T00891027  RH  044%=      5-min Rain = 0
KVP1 201735Z 21019KT 09/M02 A3017 RMK A01 T00931023  RH  044%=      5-min Rain = 0
KVP1 201736Z 21019KT 09/M03 A3017 RMK A01 T00921028  RH  043%=      5-min Rain = 0
KVP1 201737Z 21018KT 09/M03 A3017 RMK A01 T00911028  RH  043%=      5-min Rain = 0
KVP1 201738Z 21021KT 09/M03 A3017 RMK A01 T00921028  RH  043%=      5-min Rain = 0
KVP1 201739Z 22020KT 09/M03 A3017 RMK A01 T00921028  RH  043%=      5-min Rain = 0
KVP1 201740Z 22019KT 09/M03 A3017 RMK A01 T00931029  RH  042%=      5-min Rain = 0
KVP1 201741Z 21018KT 09/M03 A3017 RMK A01 T00931028  RH  042%=      5-min Rain = 0
KVP1 201742Z 21020G25KT 10/M03 A3017 RMK A01 T00951028  RH  042%=      5-min Rain = 0
KVP1 201743Z 21017G23KT 09/M03 A3017 RMK A01 T00941028  RH  042%=      5-min Rain = 0
KVP1 201744Z 21016KT 10/M03 A3017 RMK A01 T00961026  RH  042%=      5-min Rain = 0
KVP1 201745Z 21017G22KT 10/M03 A3017 RMK A01 T00991025  RH  042%=      5-min Rain = 0
KVP1 201746Z 22019KT 10/M03 A3017 RMK A01 T00991028  RH  041%=      5-min Rain = 0
KVP1 201747Z 22018KT 10/M03 A3017 RMK A01 T00971029  RH  041%=      5-min Rain = 0
KVP1 201748Z 21016KT 10/M03 A3017 RMK A01 T00961028  RH  041%=      5-min Rain = 0
KVP1 201749Z 21018KT 10/M03 A3017 RMK A01 T00981026  RH  042%=      5-min Rain = 0
KVP1 201750Z 22018KT 10/M03 A3017 RMK A01 T00991028  RH  041%=      5-min Rain = 0
KVP1 201751Z 22019KT 10/M03 A3017 RMK A01 T00991029  RH  040%=      5-min Rain = 0
KVP1 201752Z 22019KT 10/M03 A3017 RMK A01 T00981031  RH  040%=      5-min Rain = 0
KVP1 201753Z 22017KT 10/M03 A3017 RMK A01 T00971031  RH  041%=      5-min Rain = 0
KVP1 201754Z 21019KT 10/M03 A3017 RMK A01 T00991028  RH  041%=      5-min Rain = 0
KVP1 201755Z 21019KT 10/M03 A3017 RMK A01 T01001030  RH  040%=      5-min Rain = 0
KVP1 201756Z 21017KT 10/M03 A3017 RMK A01 T00991031  RH  040%=      5-min Rain = 0
KVP1 201757Z 21016KT 10/M03 A3017 RMK A01 T00981030  RH  040%=      5-min Rain = 0
KVP1 201758Z 22019KT 10/M03 A3016 RMK A01 T01001029  RH  040%=      5-min Rain = 0
KVP1 201759Z 23017KT 10/M03 A3016 RMK A01 T01021031  RH  039%=      5-min Rain = 0
KVP1 201800Z 22019KT 10/M03 A3016 RMK A01 T01021031  RH  039%=      5-min Rain = 0
KVP1 201801Z 22017KT 10/M03 A3016 RMK A01 T01011032  RH  039%=      5-min Rain = 0
KVP1 201802Z 21015KT 10/M03 A3016 RMK A01 T01001030  RH  040%=      5-min Rain = 0
KVP1 201803Z 22016KT 10/M03 A3016 RMK A01 T01041028  RH  040%=      5-min Rain = 0
KVP1 201804Z 22018KT 11/M03 A3016 RMK A01 T01061031  RH  038%=      5-min Rain = 0
KVP1 201805Z 23015G20KT 11/M03 A3016 RMK A01 T01061034  RH  037%=      5-min Rain = 0
KVP1 201806Z 22018KT 11/M03 A3016 RMK A01 T01071031  RH  038%=      5-min Rain = 0
KVP1 201807Z 21018KT 11/M03 A3016 RMK A01 T01071030  RH  038%=      5-min Rain = 0
KVP1 201808Z 22016KT 11/M03 A3016 RMK A01 T01071030  RH  038%=      5-min Rain = 0
KVP1 201809Z 21018KT 11/M03 A3016 RMK A01 T01071033  RH  038%=      5-min Rain = 0
KVP1 201810Z 23017KT 11/M03 A3016 RMK A01 T01051032  RH  038%=      5-min Rain = 0
KVP1 201811Z 21014KT 11/M03 A3016 RMK A01 T01061030  RH  038%=      5-min Rain = 0
KVP1 201812Z 23016KT 11/M03 A3016 RMK A01 T01081032  RH  037%=      5-min Rain = 0
KVP1 201813Z 23017KT 11/M04 A3016 RMK A01 T01071035  RH  037%=      5-min Rain = 0
KVP1 201814Z 22016KT 11/M03 A3015 RMK A01 T01071034  RH  037%=      5-min Rain = 0
KVP1 201815Z 23016KT 11/M03 A3016 RMK A01 T01091031  RH  037%=      5-min Rain = 0
KVP1 201816Z 23019KT 11/M03 A3016 RMK A01 T01101034  RH  036%=      5-min Rain = 0
KVP1 201817Z 22018KT 11/M04 A3016 RMK A01 T01081036  RH  036%=      5-min Rain = 0
KVP1 201818Z 22018KT 11/M04 A3016 RMK A01 T01081035  RH  036%=      5-min Rain = 0
KVP1 201819Z 23019KT 11/M04 A3016 RMK A01 T01081035  RH  036%=      5-min Rain = 0
KVP1 201820Z 22017KT 11/M03 A3016 RMK A01 T01091033  RH  037%=      5-min Rain = 0
KVP1 201821Z 23017KT 11/M03 A3016 RMK A01 T01121032  RH  036%=      5-min Rain = 0
KVP1 201822Z 23018KT 11/M03 A3015 RMK A01 T01121034  RH  036%=      5-min Rain = 0
KVP1 201823Z 22017KT 11/M03 A3015 RMK A01 T01111033  RH  036%=      5-min Rain = 0
KVP1 201824Z 22017KT 11/M03 A3015 RMK A01 T01111032  RH  037%=      5-min Rain = 0
KVP1 201825Z 22016KT 11/M03 A3015 RMK A01 T01131031  RH  037%=      5-min Rain = 0
KVP1 201826Z 22016KT 11/M03 A3015 RMK A01 T01141031  RH  036%=      5-min Rain = 0
KVP1 201827Z 23016KT 11/M03 A3015 RMK A01 T01141031  RH  036%=      5-min Rain = 0
KVP1 201828Z 22018KT 12/M03 A3015 RMK A01 T01161030  RH  036%=      5-min Rain = 0
KVP1 201829Z 23019KT 12/M03 A3015 RMK A01 T01171033  RH  035%=      5-min Rain = 0
KVP1 201830Z 23018KT 12/M03 A3015 RMK A01 T01161034  RH  035%=      5-min Rain = 0
KVP1 201831Z 24018KT 12/M04 A3015 RMK A01 T01151035  RH  035%=      5-min Rain = 0
KVP1 201832Z 23016KT 12/M03 A3015 RMK A01 T01151033  RH  035%=      5-min Rain = 0
KVP1 201833Z 22017KT 12/M03 A3015 RMK A01 T01151031  RH  036%=      5-min Rain = 0
KVP1 201834Z 22018KT 12/M03 A3015 RMK A01 T01161031  RH  036%=      5-min Rain = 0
KVP1 201835Z 22019KT 12/M03 A3015 RMK A01 T01171031  RH  035%=      5-min Rain = 0
KVP1 201836Z 23017KT 12/M03 A3015 RMK A01 T01191031  RH  035%=      5-min Rain = 0
KVP1 201837Z 24017KT 12/M03 A3015 RMK A01 T01191032  RH  035%=      5-min Rain = 0
KVP1 201838Z 23014KT 12/M03 A3015 RMK A01 T01191029  RH  035%=      5-min Rain = 0
KVP1 201839Z 22018KT 12/M03 A3014 RMK A01 T01221028  RH  035%=      5-min Rain = 0
KVP1 201840Z 23016KT 12/M03 A3014 RMK A01 T01211033  RH  034%=      5-min Rain = 0
KVP1 201841Z 22016KT 12/M03 A3014 RMK A01 T01161034  RH  035%=      5-min Rain = 0
KVP1 201842Z 22016G21KT 11/M03 A3014 RMK A01 T01131034  RH  036%=      5-min Rain = 0
KVP1 201843Z 22017KT 11/M03 A3014 RMK A01 T01121033  RH  036%=      5-min Rain = 0
KVP1 201844Z 22015KT 11/M03 A3014 RMK A01 T01111033  RH  036%=      5-min Rain = 0
KVP1 201845Z 23016KT 11/M03 A3014 RMK A01 T01131033  RH  036%=      5-min Rain = 0
KVP1 201846Z 22016KT 12/M03 A3014 RMK A01 T01151033  RH  035%=      5-min Rain = 0
KVP1 201847Z 22014KT 12/M03 A3014 RMK A01 T01151032  RH  036%=      5-min Rain = 0
KVP1 201848Z 22016KT 12/M03 A3013 RMK A01 T01161032  RH  036%=      5-min Rain = 0
KVP1 201849Z 22015KT 12/M03 A3013 RMK A01 T01171032  RH  035%=      5-min Rain = 0
KVP1 201850Z 22014KT 12/M03 A3013 RMK A01 T01191031  RH  035%=      5-min Rain = 0
KVP1 201851Z 22015KT 12/M03 A3013 RMK A01 T01221029  RH  035%=      5-min Rain = 0
KVP1 201852Z 23016KT 12/M03 A3013 RMK A01 T01231030  RH  034%=      5-min Rain = 0
KVP1 201853Z 21014KT 12/M03 A3013 RMK A01 T01221030  RH  035%=      5-min Rain = 0
KVP1 201854Z 22018KT 12/M03 A3013 RMK A01 T01231029  RH  035%=      5-min Rain = 0
KVP1 201855Z 22016KT 12/M03 A3013 RMK A01 T01201032  RH  034%=      5-min Rain = 0
KVP1 201856Z 23015KT 12/M03 A3012 RMK A01 T01171032  RH  035%=      5-min Rain = 0
KVP1 201857Z 22017KT 12/M03 A3012 RMK A01 T01171032  RH  035%=      5-min Rain = 0
KVP1 201858Z 22016KT 12/M03 A3012 RMK A01 T01171033  RH  035%=      5-min Rain = 0
KVP1 201859Z 21016KT 12/M03 A3012 RMK A01 T01161032  RH  035%=      5-min Rain = 0
KVP1 201900Z 21016KT 12/M03 A3012 RMK A01 T01171031  RH  035%=      5-min Rain = 0
KVP1 201901Z 22015KT 12/M03 A3012 RMK A01 T01171030  RH  035%=      5-min Rain = 0
KVP1 201902Z 22015KT 12/M03 A3012 RMK A01 T01181030  RH  035%=      5-min Rain = 0
KVP1 201903Z 23017KT 12/M03 A3012 RMK A01 T01181031  RH  035%=      5-min Rain = 0
KVP1 201904Z 23017KT 12/M03 A3012 RMK A01 T01181033  RH  035%=      5-min Rain = 0
KVP1 201905Z 22016KT 12/M03 A3012 RMK A01 T01171032  RH  035%=      5-min Rain = 0
KVP1 201906Z 22016KT 12/M03 A3012 RMK A01 T01171032  RH  035%=      5-min Rain = 0
KVP1 201907Z 22017KT 12/M03 A3012 RMK A01 T01191030  RH  035%=      5-min Rain = 0
KVP1 201908Z 23014KT 12/M03 A3012 RMK A01 T01201031  RH  035%=      5-min Rain = 0
KVP1 201909Z 22014KT 12/M03 A3012 RMK A01 T01211030  RH  035%=      5-min Rain = 0
KVP1 201910Z 22016KT 12/M03 A3012 RMK A01 T01221030  RH  034%=      5-min Rain = 0
KVP1 201911Z 22016KT 12/M03 A3011 RMK A01 T01231030  RH  034%=      5-min Rain = 0
KVP1 201912Z 21014KT 12/M03 A3011 RMK A01 T01241028  RH  034%=      5-min Rain = 0
KVP1 201913Z 20014KT 13/M03 A3011 RMK A01 T01261026  RH  035%=      5-min Rain = 0
KVP1 201914Z 21012KT 13/M03 A3011 RMK A01 T01261027  RH  034%=      5-min Rain = 0
KVP1 201915Z 22016KT 13/M03 A3011 RMK A01 T01271027  RH  034%=      5-min Rain = 0
KVP1 201916Z 23015KT 13/M03 A3011 RMK A01 T01271031  RH  033%=      5-min Rain = 0
KVP1 201917Z 23013KT 12/M03 A3011 RMK A01 T01231032  RH  034%=      5-min Rain = 0
KVP1 201918Z 22014KT 12/M03 A3011 RMK A01 T01221030  RH  034%=      5-min Rain = 0
KVP1 201919Z 22014KT 12/M03 A3011 RMK A01 T01211030  RH  035%=      5-min Rain = 0
KVP1 201920Z 22012KT 12/M03 A3011 RMK A01 T01221030  RH  035%=      5-min Rain = 0
KVP1 201921Z 23013KT 12/M03 A3011 RMK A01 T01231029  RH  035%=      5-min Rain = 0
KVP1 201922Z 22015KT 12/M03 A3011 RMK A01 T01231029  RH  034%=      5-min Rain = 0
KVP1 201923Z 22015KT 12/M03 A3011 RMK A01 T01241029  RH  034%=      5-min Rain = 0
KVP1 201924Z 22015KT 13/M03 A3011 RMK A01 T01251029  RH  034%=      5-min Rain = 0
KVP1 201925Z 22012KT 13/M03 A3011 RMK A01 T01251029  RH  034%=      5-min Rain = 0
KVP1 201926Z 23013KT 13/M03 A3011 RMK A01 T01271029  RH  034%=      5-min Rain = 0
KVP1 201927Z 24013KT 13/M03 A3011 RMK A01 T01281030  RH  033%=      5-min Rain = 0
KVP1 201928Z 23014KT 13/M03 A3011 RMK A01 T01291031  RH  033%=      5-min Rain = 0
KVP1 201929Z 23014KT 13/M03 A3011 RMK A01 T01281032  RH  033%=      5-min Rain = 0
KVP1 201930Z 23012KT 13/M03 A301 RMK A01 T01291031  RH  033%=      5-min Rain = 0
KVP1 201931Z 23012KT 13/M03 A301 RMK A01 T01301030  RH  033%=      5-min Rain = 0
KVP1 201932Z 22014KT 13/M03 A301 RMK A01 T01321030  RH  032%=      5-min Rain = 0
KVP1 201933Z 22014KT 13/M03 A301 RMK A01 T01331031  RH  032%=      5-min Rain = 0
KVP1 201934Z 22012KT 13/M03 A301 RMK A01 T01311032  RH  032%=      5-min Rain = 0
KVP1 201935Z 23014KT 13/M03 A301 RMK A01 T01311031  RH  032%=      5-min Rain = 0
KVP1 201936Z 23014KT 13/M03 A301 RMK A01 T01311032  RH  032%=      5-min Rain = 0
KVP1 201937Z 24015KT 13/M03 A301 RMK A01 T01311033  RH  032%=      5-min Rain = 0
KVP1 201938Z 23015KT 13/M03 A301 RMK A01 T01331033  RH  031%=      5-min Rain = 0
KVP1 201939Z 23015KT 14/M03 A301 RMK A01 T01351031  RH  031%=      5-min Rain = 0
KVP1 201940Z 23013KT 14/M03 A301 RMK A01 T01371033  RH  031%=      5-min Rain = 0
KVP1 201941Z 23013KT 14/M03 A301 RMK A01 T01351033  RH  031%=      5-min Rain = 0
KVP1 201942Z 22011KT 14/M03 A301 RMK A01 T01351032  RH  031%=      5-min Rain = 0
KVP1 201943Z 24011KT 14/M03 A301 RMK A01 T01351032  RH  031%=      5-min Rain = 0
KVP1 201944Z 23014KT 14/M03 A301 RMK A01 T01361031  RH  031%=      5-min Rain = 0
KVP1 201945Z 23016KT 14/M03 A301 RMK A01 T01371032  RH  031%=      5-min Rain = 0
KVP1 201946Z 23014KT 14/M03 A301 RMK A01 T01361034  RH  031%=      5-min Rain = 0
KVP1 201947Z 23015KT 14/M03 A3009 RMK A01 T01371031  RH  031%=      5-min Rain = 0
KVP1 201948Z 22016KT 14/M03 A3009 RMK A01 T01401030  RH  031%=      5-min Rain = 0
KVP1 201949Z 22012G18KT 14/M03 A3009 RMK A01 T01391031  RH  031%=      5-min Rain = 0
KVP1 201950Z 23015KT 14/M03 A3009 RMK A01 T01391030  RH  031%=      5-min Rain = 0
KVP1 201951Z 23014KT 14/M03 A3009 RMK A01 T01421029  RH  030%=      5-min Rain = 0
KVP1 201952Z 23011KT 14/M03 A301 RMK A01 T01441030  RH  030%=      5-min Rain = 0
KVP1 201953Z 23012KT 15/M03 A3009 RMK A01 T01451027  RH  030%=      5-min Rain = 0
KVP1 201954Z 24013KT 15/M03 A3009 RMK A01 T01491027  RH  030%=      5-min Rain = 0
KVP1 201955Z 23014KT 15/M03 A3009 RMK A01 T01531027  RH  029%=      5-min Rain = 0
KVP1 201956Z 23015KT 15/M03 A3009 RMK A01 T01541030  RH  028%=      5-min Rain = 0
KVP1 201957Z 22014KT 15/M03 A3009 RMK A01 T01511033  RH  028%=      5-min Rain = 0
KVP1 201958Z 22014G19KT 15/M03 A3009 RMK A01 T01511031  RH  028%=      5-min Rain = 0
KVP1 201959Z 22017G22KT 16/M03 A3009 RMK A01 T01551031  RH  028%=      5-min Rain = 0
KVP1 202000Z 23018KT 16/M03 A3009 RMK A01 T01581032  RH  027%=      5-min Rain = 0
KVP1 202001Z 22017KT 16/M04 A3009 RMK A01 T01561036  RH  027%=      5-min Rain = 0
KVP1 202002Z 21018KT 16/M04 A3009 RMK A01 T01551036  RH  027%=      5-min Rain = 0
KVP1 202003Z 22017KT 16/M04 A3008 RMK A01 T01551035  RH  027%=      5-min Rain = 0
KVP1 202004Z 22018KT 16/M04 A3009 RMK A01 T01561035  RH  027%=      5-min Rain = 0
KVP1 202005Z 22016KT 16/M04 A3009 RMK A01 T01551035  RH  027%=      5-min Rain = 0
KVP1 202006Z 22015KT 16/M03 A3009 RMK A01 T01551034  RH  027%=      5-min Rain = 0
KVP1 202007Z 24016KT 16/M03 A3009 RMK A01 T01551034  RH  027%=      5-min Rain = 0
KVP1 202008Z 24015KT 16/M03 A3009 RMK A01 T01551033  RH  027%=      5-min Rain = 0
KVP1 202009Z 23015KT 16/M03 A3008 RMK A01 T01551033  RH  027%=      5-min Rain = 0
KVP1 202010Z 21019KT 15/M03 A3008 RMK A01 T01541034  RH  027%=      5-min Rain = 0
KVP1 202011Z 21020KT 15/M04 A3008 RMK A01 T01541036  RH  027%=      5-min Rain = 0
KVP1 202012Z 22017KT 15/M04 A3008 RMK A01 T01521036  RH  027%=      5-min Rain = 0
KVP1 202013Z 22016KT 15/M04 A3008 RMK A01 T01511036  RH  027%=      5-min Rain = 0
KVP1 202014Z 22017KT 15/M04 A3008 RMK A01 T01511035  RH  028%=      5-min Rain = 0
KVP1 202015Z 22015KT 15/M04 A3008 RMK A01 T01521035  RH  028%=      5-min Rain = 0
KVP1 202016Z 24013KT 15/M03 A3008 RMK A01 T01541031  RH  028%=      5-min Rain = 0
KVP1 202017Z 23017KT 16/M03 A3008 RMK A01 T01581032  RH  027%=      5-min Rain = 0
KVP1 202018Z 23014G19KT 16/M03 A3008 RMK A01 T01561033  RH  027%=      5-min Rain = 0
KVP1 202019Z 24017KT 16/M03 A3008 RMK A01 T01561034  RH  027%=      5-min Rain = 0
KVP1 202020Z 23014KT 15/M03 A3008 RMK A01 T01531033  RH  027%=      5-min Rain = 0
KVP1 202021Z 23014KT 15/M03 A3008 RMK A01 T01531032  RH  028%=      5-min Rain = 0
KVP1 202022Z 24015KT 15/M03 A3008 RMK A01 T01511034  RH  028%=      5-min Rain = 0
KVP1 202023Z 23014KT 15/M03 A3008 RMK A01 T01471034  RH  028%=      5-min Rain = 0
KVP1 202024Z 23012KT 14/M04 A3008 RMK A01 T01441035  RH  029%=      5-min Rain = 0
KVP1 202025Z 23015KT 14/M03 A3008 RMK A01 T01411034  RH  030%=      5-min Rain = 0
KVP1 202026Z 23014KT 14/M04 A3008 RMK A01 T01401035  RH  030%=      5-min Rain = 0
KVP1 202027Z 21015KT 14/M04 A3008 RMK A01 T01381036  RH  030%=      5-min Rain = 0
KVP1 202028Z 22014KT 14/M04 A3008 RMK A01 T01381035  RH  030%=      5-min Rain = 0
KVP1 202029Z 23014KT 14/M03 A3008 RMK A01 T01401033  RH  030%=      5-min Rain = 0
KVP1 202030Z 23013KT 14/M03 A3008 RMK A01 T01431033  RH  029%=      5-min Rain = 0
KVP1 202031Z 23013KT 15/M03 A3008 RMK A01 T01451032  RH  029%=      5-min Rain = 0
KVP1 202032Z 22012KT 15/M03 A3008 RMK A01 T01481032  RH  029%=      5-min Rain = 0
KVP1 202033Z 22012KT 15/M03 A3008 RMK A01 T01501030  RH  029%=      5-min Rain = 0
KVP1 202034Z 22014KT 15/M03 A3008 RMK A01 T01521032  RH  028%=      5-min Rain = 0
KVP1 202035Z 21015KT 15/M04 A3008 RMK A01 T01491036  RH  028%=      5-min Rain = 0
KVP1 202036Z 22012KT 14/M04 A3008 RMK A01 T01441038  RH  028%=      5-min Rain = 0
KVP1 202037Z 22013KT 14/M04 A3008 RMK A01 T01411038  RH  029%=      5-min Rain = 0
KVP1 202038Z 23013KT 14/M04 A3008 RMK A01 T01401037  RH  029%=      5-min Rain = 0
KVP1 202039Z 23013KT 14/M04 A3008 RMK A01 T01391037  RH  029%=      5-min Rain = 0
KVP1 202040Z 24011KT 14/M04 A3008 RMK A01 T01391037  RH  029%=      5-min Rain = 0
KVP1 202041Z 23011KT 14/M04 A3008 RMK A01 T01401035  RH  030%=      5-min Rain = 0
KVP1 202042Z 22013G18KT 14/M03 A3008 RMK A01 T01431034  RH  029%=      5-min Rain = 0
KVP1 202043Z 22014KT 15/M03 A3008 RMK A01 T01461034  RH  029%=      5-min Rain = 0
KVP1 202044Z 22013KT 15/M03 A3007 RMK A01 T01481034  RH  028%=      5-min Rain = 0
KVP1 202045Z 22010KT 15/M03 A3007 RMK A01 T01481034  RH  028%=      5-min Rain = 0
KVP1 202046Z 23013KT 15/M03 A3007 RMK A01 T01491034  RH  028%=      5-min Rain = 0
KVP1 202047Z 23012KT 15/M04 A3007 RMK A01 T01481035  RH  028%=      5-min Rain = 0
KVP1 202048Z 24014KT 15/M04 A3007 RMK A01 T01471036  RH  028%=      5-min Rain = 0
KVP1 202049Z 25013G19KT 15/M04 A3007 RMK A01 T01451038  RH  028%=      5-min Rain = 0
KVP1 202050Z 24014KT 14/M04 A3007 RMK A01 T01441037  RH  028%=      5-min Rain = 0
KVP1 202051Z 24011KT 14/M04 A3007 RMK A01 T01441037  RH  029%=      5-min Rain = 0
KVP1 202052Z 23010KT 14/M04 A3007 RMK A01 T01431037  RH  028%=      5-min Rain = 0
KVP1 202053Z 22010KT 14/M04 A3007 RMK A01 T01421036  RH  029%=      5-min Rain = 0
KVP1 202054Z 23009KT 14/M04 A3007 RMK A01 T01411036  RH  029%=      5-min Rain = 0
KVP1 202055Z 24011KT 14/M04 A3007 RMK A01 T01411037  RH  029%=      5-min Rain = 0
KVP1 202056Z 24013KT 14/M04 A3007 RMK A01 T01421037  RH  029%=      5-min Rain = 0
KVP1 202057Z 24010KT 14/M04 A3007 RMK A01 T01441036  RH  029%=      5-min Rain = 0
KVP1 202058Z 22013G18KT 15/M03 A3007 RMK A01 T01491032  RH  028%=      5-min Rain = 0
KVP1 202059Z 22013KT 15/M04 A3007 RMK A01 T01511036  RH  027%=      5-min Rain = 0
KVP1 202100Z 22013KT 15/M04 A3007 RMK A01 T01501035  RH  028%=      5-min Rain = 0
KVP1 202101Z 22014KT 15/M03 A3007 RMK A01 T01541032  RH  028%=      5-min Rain = 0
KVP1 202102Z 23013KT 16/M03 A3007 RMK A01 T01571033  RH  027%=      5-min Rain = 0
KVP1 202103Z 24014KT 16/M04 A3007 RMK A01 T01551036  RH  027%=      5-min Rain = 0
KVP1 202104Z 25011KT 15/M04 A3007 RMK A01 T01521038  RH  027%=      5-min Rain = 0
KVP1 202105Z 25014KT 15/M04 A3007 RMK A01 T01511037  RH  027%=      5-min Rain = 0
KVP1 202106Z 25011KT 15/M04 A3007 RMK A01 T01501037  RH  027%=      5-min Rain = 0
KVP1 202107Z 24011KT 15/M04 A3007 RMK A01 T01491035  RH  028%=      5-min Rain = 0
KVP1 202108Z 22009KT 15/M04 A3007 RMK A01 T01511035  RH  028%=      5-min Rain = 0
KVP1 202109Z 22011KT 15/M03 A3006 RMK A01 T01521034  RH  028%=      5-min Rain = 0
KVP1 202110Z 25011KT 16/M03 A3006 RMK A01 T01551031  RH  028%=      5-min Rain = 0
KVP1 202111Z 24012KT 16/M03 A3006 RMK A01 T01591031  RH  027%=      5-min Rain = 0
KVP1 202112Z 23011KT 16/M04 A3006 RMK A01 T01601035  RH  026%=      5-min Rain = 0
KVP1 202113Z 24012KT 16/M04 A3006 RMK A01 T01591035  RH  026%=      5-min Rain = 0
KVP1 202114Z 24011KT 16/M04 A3006 RMK A01 T01601035  RH  026%=      5-min Rain = 0
KVP1 202115Z 23012KT 16/M04 A3006 RMK A01 T01611035  RH  026%=      5-min Rain = 0
KVP1 202116Z 22012KT 16/M03 A3006 RMK A01 T01601034  RH  026%=      5-min Rain = 0
KVP1 202117Z 22011G17KT 16/M03 A3006 RMK A01 T01611034  RH  026%=      5-min Rain = 0
KVP1 202118Z 23013KT 16/M04 A3006 RMK A01 T01621035  RH  026%=      5-min Rain = 0
KVP1 202119Z 23012KT 16/M04 A3006 RMK A01 T01631036  RH  025%=      5-min Rain = 0
KVP1 202120Z 22013KT 16/M04 A3006 RMK A01 T01611037  RH  025%=      5-min Rain = 0
KVP1 202121Z 23012KT 16/M04 A3006 RMK A01 T01601036  RH  026%=      5-min Rain = 0
KVP1 202122Z 24012KT 16/M04 A3006 RMK A01 T01601036  RH  026%=      5-min Rain = 0
KVP1 202123Z 23012KT 16/M04 A3006 RMK A01 T01601037  RH  026%=      5-min Rain = 0
KVP1 202124Z 24011KT 16/M04 A3006 RMK A01 T01591037  RH  026%=      5-min Rain = 0
KVP1 202125Z 24012KT 16/M04 A3006 RMK A01 T01591037  RH  026%=      5-min Rain = 0
KVP1 202126Z 22011KT 16/M04 A3006 RMK A01 T01581035  RH  026%=      5-min Rain = 0
KVP1 202127Z 22011KT 16/M03 A3006 RMK A01 T01611033  RH  026%=      5-min Rain = 0
KVP1 202128Z 23011KT 16/M04 A3006 RMK A01 T01621035  RH  026%=      5-min Rain = 0
KVP1 202129Z 24012KT 16/M04 A3006 RMK A01 T01621035  RH  026%=      5-min Rain = 0
KVP1 202130Z 23012KT 16/M04 A3006 RMK A01 T01601037  RH  026%=      5-min Rain = 0
KVP1 202131Z 24013KT 16/M04 A3006 RMK A01 T01591037  RH  026%=      5-min Rain = 0
KVP1 202132Z 24012KT 16/M04 A3006 RMK A01 T01571038  RH  026%=      5-min Rain = 0
KVP1 202133Z 25011KT 16/M04 A3006 RMK A01 T01561037  RH  026%=      5-min Rain = 0
KVP1 202134Z 24013KT 16/M04 A3006 RMK A01 T01561038  RH  026%=      5-min Rain = 0
KVP1 202135Z 24015KT 16/M04 A3006 RMK A01 T01571037  RH  026%=      5-min Rain = 0
KVP1 202136Z 24013KT 16/M04 A3006 RMK A01 T01591036  RH  026%=      5-min Rain = 0
KVP1 202137Z 25012KT 16/M04 A3006 RMK A01 T01611036  RH  026%=      5-min Rain = 0
KVP1 202138Z 25014KT 16/M04 A3006 RMK A01 T01631036  RH  025%=      5-min Rain = 0
KVP1 202139Z 24012KT 16/M04 A3006 RMK A01 T01641036  RH  025%=      5-min Rain = 0
KVP1 202140Z 23012KT 16/M04 A3005 RMK A01 T01631036  RH  025%=      5-min Rain = 0
KVP1 202141Z 23013KT 16/M04 A3005 RMK A01 T01611036  RH  026%=      5-min Rain = 0
KVP1 202142Z 22015KT 16/M04 A3005 RMK A01 T01611037  RH  026%=      5-min Rain = 0
KVP1 202143Z 22014KT 16/M04 A3005 RMK A01 T01591038  RH  026%=      5-min Rain = 0
KVP1 202144Z 23013KT 16/M04 A3005 RMK A01 T01581038  RH  026%=      5-min Rain = 0
KVP1 202145Z 21013KT 16/M04 A3005 RMK A01 T01571038  RH  026%=      5-min Rain = 0
KVP1 202146Z 22010KT 16/M04 A3005 RMK A01 T01571037  RH  026%=      5-min Rain = 0
KVP1 202147Z 22011KT 16/M04 A3005 RMK A01 T01561037  RH  026%=      5-min Rain = 0
KVP1 202148Z 24012KT 16/M04 A3005 RMK A01 T01561038  RH  026%=      5-min Rain = 0
KVP1 202149Z 25013KT 16/M04 A3005 RMK A01 T01581039  RH  026%=      5-min Rain = 0
KVP1 202150Z 23013KT 16/M04 A3005 RMK A01 T01591039  RH  025%=      5-min Rain = 0
KVP1 202151Z 23012KT 16/M04 A3006 RMK A01 T01601039  RH  025%=      5-min Rain = 0
KVP1 202152Z 23013KT 16/M04 A3006 RMK A01 T01591040  RH  025%=      5-min Rain = 0
KVP1 202153Z 23012KT 16/M04 A3006 RMK A01 T01581041  RH  025%=      5-min Rain = 0
KVP1 202154Z 23010KT 16/M04 A3005 RMK A01 T01591038  RH  026%=      5-min Rain = 0
KVP1 202155Z 21015KT 16/M04 A3005 RMK A01 T01641037  RH  025%=      5-min Rain = 0
KVP1 202156Z 21013KT 16/M04 A3005 RMK A01 T01631040  RH  024%=      5-min Rain = 0
KVP1 202157Z 22011KT 16/M04 A3006 RMK A01 T01591042  RH  025%=      5-min Rain = 0
KVP1 202158Z 22009KT 16/M04 A3005 RMK A01 T01571042  RH  025%=      5-min Rain = 0
KVP1 202159Z 21011KT 16/M04 A3005 RMK A01 T01571041  RH  025%=      5-min Rain = 0
KVP1 202200Z 22011KT 16/M04 A3005 RMK A01 T01591039  RH  025%=      5-min Rain = 0
KVP1 202201Z 22010KT 16/M04 A3005 RMK A01 T01611039  RH  025%=      5-min Rain = 0
KVP1 202202Z 22012KT 16/M04 A3005 RMK A01 T01621039  RH  025%=      5-min Rain = 0
KVP1 202203Z 21013KT 16/M04 A3005 RMK A01 T01621040  RH  025%=      5-min Rain = 0
KVP1 202204Z 21010KT 16/M04 A3005 RMK A01 T01611040  RH  025%=      5-min Rain = 0
KVP1 202205Z 20011KT 16/M04 A3005 RMK A01 T01591040  RH  025%=      5-min Rain = 0
KVP1 202206Z 21013KT 16/M04 A3005 RMK A01 T01581040  RH  025%=      5-min Rain = 0
KVP1 202207Z 21013KT 16/M04 A3005 RMK A01 T01571041  RH  025%=      5-min Rain = 0
KVP1 202208Z 21011KT 16/M04 A3005 RMK A01 T01561039  RH  026%=      5-min Rain = 0
KVP1 202209Z 22013KT 16/M04 A3005 RMK A01 T01561039  RH  026%=      5-min Rain = 0
KVP1 202210Z 22011KT 16/M04 A3005 RMK A01 T01551040  RH  026%=      5-min Rain = 0
KVP1 202211Z 21010KT 16/M04 A3005 RMK A01 T01551040  RH  026%=      5-min Rain = 0
KVP1 202212Z 22012KT 16/M04 A3005 RMK A01 T01551039  RH  026%=      5-min Rain = 0
KVP1 202213Z 23009KT 15/M04 A3005 RMK A01 T01541040  RH  026%=      5-min Rain = 0
KVP1 202214Z 23009KT 15/M04 A3005 RMK A01 T01541040  RH  026%=      5-min Rain = 0
KVP1 202215Z 23011KT 15/M04 A3005 RMK A01 T01521040  RH  026%=      5-min Rain = 0
KVP1 202216Z 23011KT 15/M04 A3005 RMK A01 T01511041  RH  026%=      5-min Rain = 0
KVP1 202217Z 23011KT 15/M04 A3005 RMK A01 T01511040  RH  026%=      5-min Rain = 0
KVP1 202218Z 24008KT 15/M04 A3005 RMK A01 T01511040  RH  026%=      5-min Rain = 0
KVP1 202219Z 23007KT 15/M04 A3005 RMK A01 T01521039  RH  026%=      5-min Rain = 0
KVP1 202220Z 23009KT 15/M04 A3005 RMK A01 T01541038  RH  026%=      5-min Rain = 0
KVP1 202221Z 23008KT 16/M04 A3005 RMK A01 T01561039  RH  026%=      5-min Rain = 0
KVP1 202222Z 23008KT 16/M04 A3005 RMK A01 T01581038  RH  026%=      5-min Rain = 0
KVP1 202223Z 23010KT 16/M04 A3005 RMK A01 T01601037  RH  026%=      5-min Rain = 0
KVP1 202224Z 23011KT 16/M04 A3005 RMK A01 T01621038  RH  025%=      5-min Rain = 0
KVP1 202225Z 24010KT 16/M04 A3005 RMK A01 T01621039  RH  025%=      5-min Rain = 0
KVP1 202226Z 23009KT 16/M04 A3005 RMK A01 T01611039  RH  025%=      5-min Rain = 0
KVP1 202227Z 22012KT 16/M04 A3005 RMK A01 T01601040  RH  025%=      5-min Rain = 0
KVP1 202228Z 23013KT 16/M04 A3004 RMK A01 T01591041  RH  025%=      5-min Rain = 0
KVP1 202229Z 22011KT 16/M04 A3004 RMK A01 T01581041  RH  025%=      5-min Rain = 0
KVP1 202230Z 22009KT 16/M04 A3005 RMK A01 T01581040  RH  025%=      5-min Rain = 0
KVP1 202231Z 22009KT 16/M04 A3004 RMK A01 T01581039  RH  025%=      5-min Rain = 0
KVP1 202232Z 23010KT 16/M04 A3004 RMK A01 T01581040  RH  025%=      5-min Rain = 0
KVP1 202233Z 22008KT 16/M04 A3004 RMK A01 T01571041  RH  025%=      5-min Rain = 0
KVP1 202234Z 22009KT 16/M04 A3004 RMK A01 T01571040  RH  026%=      5-min Rain = 0
KVP1 202235Z 23012KT 16/M04 A3004 RMK A01 T01571039  RH  026%=      5-min Rain = 0
KVP1 202236Z 23012KT 16/M04 A3004 RMK A01 T01571040  RH  025%=      5-min Rain = 0
KVP1 202237Z 23012KT 16/M04 A3004 RMK A01 T01581039  RH  025%=      5-min Rain = 0
KVP1 202238Z 23012KT 16/M04 A3004 RMK A01 T01601038  RH  025%=      5-min Rain = 0
KVP1 202239Z 23010KT 16/M04 A3004 RMK A01 T01611039  RH  025%=      5-min Rain = 0
KVP1 202240Z 23009KT 16/M04 A3005 RMK A01 T01621038  RH  025%=      5-min Rain = 0
KVP1 202241Z 23011KT 16/M04 A3004 RMK A01 T01631038  RH  025%=      5-min Rain = 0
KVP1 202242Z 23009KT 16/M04 A3004 RMK A01 T01631039  RH  025%=      5-min Rain = 0
KVP1 202243Z 23008KT 16/M04 A3004 RMK A01 T01631038  RH  025%=      5-min Rain = 0
KVP1 202244Z 23009KT 16/M04 A3004 RMK A01 T01641037  RH  025%=      5-min Rain = 0
KVP1 202245Z 24010KT 17/M04 A3004 RMK A01 T01661037  RH  025%=      5-min Rain = 0
KVP1 202246Z 23009KT 17/M04 A3004 RMK A01 T01651038  RH  025%=      5-min Rain = 0
KVP1 202247Z 23010KT 17/M04 A3004 RMK A01 T01651037  RH  025%=      5-min Rain = 0
KVP1 202248Z 23010KT 17/M04 A3004 RMK A01 T01651038  RH  025%=      5-min Rain = 0
KVP1 202249Z 23007KT 16/M04 A3004 RMK A01 T01641038  RH  025%=      5-min Rain = 0
KVP1 202250Z 24008KT 16/M04 A3004 RMK A01 T01641036  RH  025%=      5-min Rain = 0
KVP1 202251Z 23008KT 17/M04 A3004 RMK A01 T01651037  RH  025%=      5-min Rain = 0
KVP1 202252Z 23008KT 17/M04 A3004 RMK A01 T01651036  RH  025%=      5-min Rain = 0
KVP1 202253Z 23011KT 17/M04 A3004 RMK A01 T01651036  RH  025%=      5-min Rain = 0
KVP1 202254Z 23011KT 17/M04 A3004 RMK A01 T01651037  RH  025%=      5-min Rain = 0
KVP1 202255Z 22010KT 16/M04 A3004 RMK A01 T01641038  RH  025%=      5-min Rain = 0
KVP1 202256Z 23010KT 16/M04 A3004 RMK A01 T01631038  RH  025%=      5-min Rain = 0
KVP1 202257Z 23010KT 16/M04 A3004 RMK A01 T01621038  RH  025%=      5-min Rain = 0
KVP1 202258Z 23010KT 16/M04 A3004 RMK A01 T01611039  RH  025%=      5-min Rain = 0
KVP1 202259Z 22009KT 16/M04 A3004 RMK A01 T01611038  RH  025%=      5-min Rain = 0
KVP1 202300Z 22008KT 16/M04 A3004 RMK A01 T01601039  RH  025%=      5-min Rain = 0
KVP1 202301Z 23009KT 16/M04 A3004 RMK A01 T01611038  RH  025%=      5-min Rain = 0
KVP1 202302Z 23009KT 16/M04 A3004 RMK A01 T01611038  RH  025%=      5-min Rain = 0
KVP1 202303Z 23008KT 16/M04 A3004 RMK A01 T01601037  RH  026%=      5-min Rain = 0
KVP1 202304Z 23010KT 16/M04 A3004 RMK A01 T01611036  RH  026%=      5-min Rain = 0
KVP1 202305Z 23008KT 16/M04 A3004 RMK A01 T01611037  RH  025%=      5-min Rain = 0
KVP1 202306Z 24008KT 16/M04 A3004 RMK A01 T01611036  RH  026%=      5-min Rain = 0
KVP1 202307Z 23007KT 16/M04 A3004 RMK A01 T01611036  RH  026%=      5-min Rain = 0
KVP1 202308Z 23008KT 16/M04 A3004 RMK A01 T01601036  RH  026%=      5-min Rain = 0
KVP1 202309Z 24008KT 16/M04 A3004 RMK A01 T01591035  RH  026%=      5-min Rain = 0
KVP1 202310Z 23007KT 16/M04 A3004 RMK A01 T01591035  RH  026%=      5-min Rain = 0
KVP1 202311Z 23007KT 16/M04 A3004 RMK A01 T01591035  RH  026%=      5-min Rain = 0
KVP1 202312Z 24008KT 16/M04 A3004 RMK A01 T01591035  RH  026%=      5-min Rain = 0
KVP1 202313Z 23007KT 16/M04 A3004 RMK A01 T01581035  RH  026%=      5-min Rain = 0
KVP1 202314Z 23008KT 16/M04 A3004 RMK A01 T01581035  RH  026%=      5-min Rain = 0
KVP1 202315Z 23008KT 16/M04 A3004 RMK A01 T01571035  RH  026%=      5-min Rain = 0
KVP1 202316Z 23008KT 16/M04 A3004 RMK A01 T01571035  RH  026%=      5-min Rain = 0
KVP1 202317Z 23006KT 16/M03 A3004 RMK A01 T01571034  RH  027%=      5-min Rain = 0
KVP1 202318Z 23006KT 16/M03 A3004 RMK A01 T01571034  RH  027%=      5-min Rain = 0
KVP1 202319Z 23006KT 16/M03 A3004 RMK A01 T01571034  RH  027%=      5-min Rain = 0
KVP1 202320Z 23006KT 16/M03 A3004 RMK A01 T01571034  RH  027%=      5-min Rain = 0
KVP1 202321Z 22006KT 16/M04 A3004 RMK A01 T01561035  RH  027%=      5-min Rain = 0
KVP1 202322Z 22006KT 16/M04 A3004 RMK A01 T01551035  RH  027%=      5-min Rain = 0
KVP1 202323Z 22006KT 15/M04 A3004 RMK A01 T01541035  RH  027%=      5-min Rain = 0
KVP1 202324Z 22006KT 15/M04 A3004 RMK A01 T01521035  RH  027%=      5-min Rain = 0
KVP1 202325Z 22006KT 15/M04 A3004 RMK A01 T01501036  RH  027%=      5-min Rain = 0
KVP1 202326Z 22006KT 15/M04 A3004 RMK A01 T01491036  RH  028%=      5-min Rain = 0
KVP1 202327Z 22005KT 15/M04 A3004 RMK A01 T01471037  RH  028%=      5-min Rain = 0
KVP1 202328Z 22005KT 15/M04 A3004 RMK A01 T01461037  RH  028%=      5-min Rain = 0
KVP1 202329Z 22005KT 14/M04 A3004 RMK A01 T01441037  RH  028%=      5-min Rain = 0
KVP1 202330Z 22005KT 14/M04 A3004 RMK A01 T01431037  RH  029%=      5-min Rain = 0
KVP1 202331Z 21005KT 14/M04 A3004 RMK A01 T01421037  RH  029%=      5-min Rain = 0
KVP1 202332Z 21004KT 14/M04 A3004 RMK A01 T01411038  RH  029%=      5-min Rain = 0
KVP1 202333Z 21004KT 14/M04 A3003 RMK A01 T01401038  RH  029%=      5-min Rain = 0
KVP1 202334Z 21004KT 14/M04 A3003 RMK A01 T01391038  RH  029%=      5-min Rain = 0
KVP1 202335Z 21005KT 14/M04 A3003 RMK A01 T01381038  RH  029%=      5-min Rain = 0
KVP1 202336Z 21004KT 14/M04 A3003 RMK A01 T01371038  RH  029%=      5-min Rain = 0
KVP1 202337Z 21004KT 14/M04 A3003 RMK A01 T01361038  RH  030%=      5-min Rain = 0
KVP1 202338Z 21004KT 14/M04 A3003 RMK A01 T01351039  RH  030%=      5-min Rain = 0
KVP1 202339Z 21005KT 13/M04 A3003 RMK A01 T01341038  RH  030%=      5-min Rain = 0
KVP1 202340Z 21005KT 13/M04 A3003 RMK A01 T01331037  RH  031%=      5-min Rain = 0
KVP1 202341Z 21005KT 13/M04 A3003 RMK A01 T01331036  RH  031%=      5-min Rain = 0
KVP1 202342Z 21005KT 13/M04 A3003 RMK A01 T01321035  RH  031%=      5-min Rain = 0
KVP1 202343Z 21005KT 13/M03 A3003 RMK A01 T01311033  RH  032%=      5-min Rain = 0
KVP1 202344Z 21005KT 13/M03 A3003 RMK A01 T01301033  RH  032%=      5-min Rain = 0
KVP1 202345Z 21005KT 13/M03 A3003 RMK A01 T01301033  RH  032%=      5-min Rain = 0
KVP1 202346Z 21005KT 13/M03 A3003 RMK A01 T01291032  RH  033%=      5-min Rain = 0
KVP1 202347Z 21005KT 13/M03 A3003 RMK A01 T01291031  RH  033%=      5-min Rain = 0
KVP1 202348Z 21005KT 13/M03 A3003 RMK A01 T01281031  RH  033%=      5-min Rain = 0
KVP1 202349Z 21005KT 13/M03 A3003 RMK A01 T01281030  RH  033%=      5-min Rain = 0
KVP1 202350Z 21005KT 13/M03 A3003 RMK A01 T01271030  RH  033%=      5-min Rain = 0
KVP1 202351Z 21005KT 13/M03 A3003 RMK A01 T01261031  RH  033%=      5-min Rain = 0
KVP1 202352Z 20004KT 13/M03 A3003 RMK A01 T01251032  RH  033%=      5-min Rain = 0
KVP1 202353Z 20004KT 12/M03 A3003 RMK A01 T01241032  RH  034%=      5-min Rain = 0
KVP1 202354Z 20004KT 12/M03 A3003 RMK A01 T01231033  RH  033%=      5-min Rain = 0
KVP1 202355Z 20004KT 12/M03 A3003 RMK A01 T01241032  RH  034%=      5-min Rain = 0
KVP1 202356Z 20004KT 12/M03 A3003 RMK A01 T01241033  RH  033%=      5-min Rain = 0
KVP1 202357Z 20004KT 12/M03 A3003 RMK A01 T01241034  RH  033%=      5-min Rain = 0
KVP1 202358Z 20003KT 12/M04 A3003 RMK A01 T01241035  RH  033%=      5-min Rain = 0
KVP1 202359Z 19003KT 12/M04 A3003 RMK A01 T01231036  RH  033%=      5-min Rain = 0
KVP1 210000Z 18003KT 12/M04 A3003 RMK A01 T01211037  RH  033%=      5-min Rain = 0
KVP1 210001Z 18004KT 12/M04 A3003 RMK A01 T01211037  RH  033%=      5-min Rain = 0
KVP1 210002Z 16004KT 12/M04 A3003 RMK A01 T01211038  RH  033%=      5-min Rain = 0
KVP1 210003Z 13005KT 12/M04 A3003 RMK A01 T01171041  RH  033%=      5-min Rain = 0
KVP1 210004Z 13005KT 11/M04 A3003 RMK A01 T01131041  RH  034%=      5-min Rain = 0
KVP1 210005Z 13006KT 11/M04 A3003 RMK A01 T01101042  RH  034%=      5-min Rain = 0
KVP1 210006Z 14006KT 11/M05 A3003 RMK A01 T01051045  RH  035%=      5-min Rain = 0
KVP1 210007Z 14006KT 10/M05 A3003 RMK A01 T01001046  RH  035%=      5-min Rain = 0
KVP1 210008Z 14006KT 10/M05 A3003 RMK A01 T00971045  RH  036%=      5-min Rain = 0
KVP1 210009Z 14006KT 10/M04 A3003 RMK A01 T00951044  RH  037%=      5-min Rain = 0
KVP1 210010Z 13006KT 10/M04 A3003 RMK A01 T00951044  RH  037%=      5-min Rain = 0
KVP1 210011Z 13006KT 09/M05 A3003 RMK A01 T00931045  RH  037%=      5-min Rain = 0
KVP1 210012Z 13005KT 09/M05 A3003 RMK A01 T00911046  RH  038%=      5-min Rain = 0
KVP1 210013Z 13005KT 09/M05 A3003 RMK A01 T00901047  RH  038%=      5-min Rain = 0
KVP1 210014Z 12005KT 09/M05 A3003 RMK A01 T00871049  RH  038%=      5-min Rain = 0
KVP1 210015Z 13005KT 09/M05 A3003 RMK A01 T00851049  RH  038%=      5-min Rain = 0
KVP1 210016Z 12005KT 08/M05 A3003 RMK A01 T00831049  RH  039%=      5-min Rain = 0
KVP1 210017Z 13005KT 08/M05 A3003 RMK A01 T00831046  RH  040%=      5-min Rain = 0
KVP1 210018Z 12005KT 08/M05 A3003 RMK A01 T00841045  RH  040%=      5-min Rain = 0
KVP1 210019Z 13006KT 09/M04 A3003 RMK A01 T00851044  RH  040%=      5-min Rain = 0
KVP1 210020Z 13006KT 09/M04 A3003 RMK A01 T00871043  RH  040%=      5-min Rain = 0
KVP1 210021Z 13006KT 09/M04 A3003 RMK A01 T00871043  RH  039%=      5-min Rain = 0
KVP1 210022Z 12006KT 09/M04 A3003 RMK A01 T00871044  RH  039%=      5-min Rain = 0
KVP1 210023Z 12006KT 09/M04 A3003 RMK A01 T00881043  RH  039%=      5-min Rain = 0
KVP1 210024Z 12006KT 09/M04 A3003 RMK A01 T00891042  RH  039%=      5-min Rain = 0
KVP1 210025Z 12006KT 09/M04 A3003 RMK A01 T00891043  RH  039%=      5-min Rain = 0
KVP1 210026Z 12005KT 09/M04 A3003 RMK A01 T00891043  RH  039%=      5-min Rain = 0
KVP1 210027Z 13006KT 09/M04 A3003 RMK A01 T00891043  RH  039%=      5-min Rain = 0
KVP1 210028Z 12006KT 09/M05 A3003 RMK A01 T00871045  RH  039%=      5-min Rain = 0
KVP1 210029Z 12006KT 09/M05 A3003 RMK A01 T00851046  RH  039%=      5-min Rain = 0
KVP1 210030Z 13007KT 08/M05 A3003 RMK A01 T00821046  RH  040%=      5-min Rain = 0
KVP1 210031Z 13007KT 08/M05 A3003 RMK A01 T00801047  RH  040%=      5-min Rain = 0
KVP1 210032Z 13007KT 08/M05 A3003 RMK A01 T00781048  RH  040%=      5-min Rain = 0
KVP1 210033Z 13007KT 08/M05 A3003 RMK A01 T00761047  RH  041%=      5-min Rain = 0
KVP1 210034Z 13007KT 08/M05 A3003 RMK A01 T00761046  RH  042%=      5-min Rain = 0
KVP1 210035Z 13007KT 08/M05 A3003 RMK A01 T00761046  RH  042%=      5-min Rain = 0
KVP1 210036Z 13008KT 08/M04 A3003 RMK A01 T00771044  RH  042%=      5-min Rain = 0
KVP1 210037Z 13008KT 08/M04 A3003 RMK A01 T00781044  RH  042%=      5-min Rain = 0
KVP1 210038Z 13008KT 08/M05 A3003 RMK A01 T00781045  RH  041%=      5-min Rain = 0
KVP1 210039Z 13008KT 08/M05 A3003 RMK A01 T00771047  RH  041%=      5-min Rain = 0
KVP1 210040Z 13008KT 08/M05 A3003 RMK A01 T00751048  RH  042%=      5-min Rain = 0
KVP1 210041Z 13008KT 07/M05 A3003 RMK A01 T00731048  RH  042%=      5-min Rain = 0
KVP1 210042Z 13008KT 07/M05 A3003 RMK A01 T00711048  RH  042%=      5-min Rain = 0
KVP1 210043Z 13008KT 07/M05 A3003 RMK A01 T00701048  RH  043%=      5-min Rain = 0
KVP1 210044Z 14008KT 07/M05 A3003 RMK A01 T00681049  RH  043%=      5-min Rain = 0
KVP1 210045Z 13008KT 07/M05 A3003 RMK A01 T00671049  RH  043%=      5-min Rain = 0
KVP1 210046Z 14008KT 07/M05 A3003 RMK A01 T00661049  RH  044%=      5-min Rain = 0
KVP1 210047Z 14008KT 07/M05 A3003 RMK A01 T00651049  RH  044%=      5-min Rain = 0
KVP1 210048Z 15009KT 06/M05 A3003 RMK A01 T00641049  RH  044%=      5-min Rain = 0
KVP1 210049Z 15009KT 06/M05 A3003 RMK A01 T00631050  RH  044%=      5-min Rain = 0
KVP1 210050Z 15008KT 06/M05 A3003 RMK A01 T00611051  RH  045%=      5-min Rain = 0
KVP1 210051Z 15009KT 06/M05 A3003 RMK A01 T00591051  RH  045%=      5-min Rain = 0
KVP1 210052Z 15009KT 06/M05 A3003 RMK A01 T00591051  RH  045%=      5-min Rain = 0
KVP1 210053Z 15009KT 06/M05 A3003 RMK A01 T00581051  RH  045%=      5-min Rain = 0
KVP1 210054Z 15009KT 06/M05 A3003 RMK A01 T00591050  RH  045%=      5-min Rain = 0
KVP1 210055Z 15008KT 06/M05 A3003 RMK A01 T00601049  RH  045%=      5-min Rain = 0
KVP1 210056Z 15007KT 06/M05 A3003 RMK A01 T00611050  RH  045%=      5-min Rain = 0
KVP1 210057Z 15009KT 06/M05 A3003 RMK A01 T00621050  RH  045%=      5-min Rain = 0
KVP1 210058Z 15009KT 06/M05 A3003 RMK A01 T00621050  RH  045%=      5-min Rain = 0
KVP1 210059Z 15009KT 06/M05 A3003 RMK A01 T00621051  RH  044%=      5-min Rain = 0
KVP1 210100Z 15009KT 06/M05 A3003 RMK A01 T00601051  RH  045%=      5-min Rain = 0
KVP1 210101Z 15010KT 06/M05 A3003 RMK A01 T00601051  RH  045%=      5-min Rain = 0
KVP1 210102Z 15009KT 06/M05 A3003 RMK A01 T00601051  RH  045%=      5-min Rain = 0
KVP1 210103Z 15008KT 06/M05 A3003 RMK A01 T00611050  RH  045%=      5-min Rain = 0
KVP1 210104Z 15009KT 06/M05 A3003 RMK A01 T00611050  RH  045%=      5-min Rain = 0
KVP1 210105Z 15009KT 06/M05 A3003 RMK A01 T00621049  RH  045%=      5-min Rain = 0
KVP1 210106Z 15010KT 06/M05 A3003 RMK A01 T00621049  RH  045%=      5-min Rain = 0
KVP1 210107Z 15009KT 06/M05 A3003 RMK A01 T00631049  RH  045%=      5-min Rain = 0
KVP1 210108Z 15009KT 06/M05 A3003 RMK A01 T00631049  RH  045%=      5-min Rain = 0
KVP1 210109Z 15009KT 06/M05 A3003 RMK A01 T00631048  RH  045%=      5-min Rain = 0
KVP1 210110Z 15009KT 06/M05 A3003 RMK A01 T00631049  RH  045%=      5-min Rain = 0
KVP1 210111Z 15009KT 06/M05 A3003 RMK A01 T00631049  RH  045%=      5-min Rain = 0
KVP1 210112Z 15010KT 06/M05 A3003 RMK A01 T00621050  RH  044%=      5-min Rain = 0
KVP1 210113Z 15009KT 06/M05 A3003 RMK A01 T00611050  RH  045%=      5-min Rain = 0
KVP1 210114Z 15009KT 06/M05 A3003 RMK A01 T00611050  RH  045%=      5-min Rain = 0
KVP1 210115Z 15010KT 06/M05 A3003 RMK A01 T00611050  RH  045%=      5-min Rain = 0
KVP1 210116Z 15010KT 06/M05 A3003 RMK A01 T00611050  RH  045%=      5-min Rain = 0
KVP1 210117Z 15010KT 06/M05 A3003 RMK A01 T00611049  RH  045%=      5-min Rain = 0
KVP1 210118Z 15010KT 06/M05 A3003 RMK A01 T00621048  RH  045%=      5-min Rain = 0
KVP1 210119Z 16009KT 06/M05 A3003 RMK A01 T00631048  RH  045%=      5-min Rain = 0
KVP1 210120Z 16009KT 06/M05 A3003 RMK A01 T00631048  RH  045%=      5-min Rain = 0
KVP1 210121Z 16009KT 06/M05 A3003 RMK A01 T00641047  RH  045%=      5-min Rain = 0
KVP1 210122Z 17009KT 07/M05 A3003 RMK A01 T00651047  RH  045%=      5-min Rain = 0
KVP1 210123Z 16009KT 07/M05 A3003 RMK A01 T00651047  RH  045%=      5-min Rain = 0
KVP1 210124Z 16010KT 07/M05 A3003 RMK A01 T00661046  RH  045%=      5-min Rain = 0
KVP1 210125Z 17010KT 07/M05 A3003 RMK A01 T00671045  RH  045%=      5-min Rain = 0
KVP1 210126Z 17010KT 07/M05 A3002 RMK A01 T00681045  RH  044%=      5-min Rain = 0
KVP1 210127Z 17010KT 07/M05 A3002 RMK A01 T00691045  RH  044%=      5-min Rain = 0
KVP1 210128Z 17010KT 07/M05 A3002 RMK A01 T00691046  RH  044%=      5-min Rain = 0
KVP1 210129Z 17010KT 07/M05 A3002 RMK A01 T00691046  RH  044%=      5-min Rain = 0
KVP1 210130Z 18010KT 07/M05 A3002 RMK A01 T00691046  RH  044%=      5-min Rain = 0
KVP1 210131Z 18009KT 07/M05 A3002 RMK A01 T00691046  RH  044%=      5-min Rain = 0
KVP1 210132Z 18010KT 07/M05 A3003 RMK A01 T00691046  RH  044%=      5-min Rain = 0
KVP1 210133Z 18010KT 07/M05 A3003 RMK A01 T00681047  RH  044%=      5-min Rain = 0
KVP1 210134Z 18009KT 07/M05 A3003 RMK A01 T00661047  RH  044%=      5-min Rain = 0
KVP1 210135Z 18009KT 07/M05 A3003 RMK A01 T00661048  RH  044%=      5-min Rain = 0
KVP1 210136Z 18009KT 07/M05 A3003 RMK A01 T00661047  RH  044%=      5-min Rain = 0
KVP1 210137Z 18009KT 07/M05 A3003 RMK A01 T00661048  RH  044%=      5-min Rain = 0
KVP1 210138Z 18008KT 07/M05 A3003 RMK A01 T00671048  RH  044%=      5-min Rain = 0
KVP1 210139Z 18008KT 07/M05 A3003 RMK A01 T00671048  RH  044%=      5-min Rain = 0
KVP1 210140Z 18009KT 07/M05 A3003 RMK A01 T00671048  RH  044%=      5-min Rain = 0
KVP1 210141Z 18009KT 07/M05 A3003 RMK A01 T00661049  RH  044%=      5-min Rain = 0
KVP1 210142Z 18008KT 07/M05 A3003 RMK A01 T00651050  RH  044%=      5-min Rain = 0
KVP1 210143Z 18010KT 06/M05 A3002 RMK A01 T00641051  RH  043%=      5-min Rain = 0
KVP1 210144Z 18010KT 07/M05 A3002 RMK A01 T00651051  RH  043%=      5-min Rain = 0
KVP1 210145Z 18010KT 07/M05 A3002 RMK A01 T00671050  RH  043%=      5-min Rain = 0
KVP1 210146Z 18010KT 07/M05 A3002 RMK A01 T00681050  RH  043%=      5-min Rain = 0
KVP1 210147Z 18010KT 07/M05 A3002 RMK A01 T00681051  RH  043%=      5-min Rain = 0
KVP1 210148Z 18010KT 07/M05 A3002 RMK A01 T00691050  RH  042%=      5-min Rain = 0
KVP1 210149Z 18010KT 07/M05 A3002 RMK A01 T00691051  RH  042%=      5-min Rain = 0
KVP1 210150Z 18010KT 07/M05 A3002 RMK A01 T00701051  RH  042%=      5-min Rain = 0
KVP1 210151Z 18009KT 07/M05 A3002 RMK A01 T00701051  RH  042%=      5-min Rain = 0
KVP1 210152Z 18009KT 07/M05 A3002 RMK A01 T00691052  RH  042%=      5-min Rain = 0
KVP1 210153Z 18009KT 07/M05 A3002 RMK A01 T00681052  RH  042%=      5-min Rain = 0
KVP1 210154Z 18009KT 07/M05 A3002 RMK A01 T00681053  RH  042%=      5-min Rain = 0
KVP1 210155Z 18009KT 07/M05 A3002 RMK A01 T00671053  RH  042%=      5-min Rain = 0
KVP1 210156Z 17009KT 07/M05 A3002 RMK A01 T00661054  RH  042%=      5-min Rain = 0
KVP1 210157Z 17009KT 07/M05 A3002 RMK A01 T00651054  RH  042%=      5-min Rain = 0
KVP1 210158Z 17009KT 06/M05 A3002 RMK A01 T00641054  RH  043%=      5-min Rain = 0
KVP1 210159Z 17009KT 06/M05 A3002 RMK A01 T00631054  RH  043%=      5-min Rain = 0
KVP1 210200Z 17008KT 06/M05 A3002 RMK A01 T00621054  RH  043%=      5-min Rain = 0
KVP1 210201Z 17008KT 06/M05 A3001 RMK A01 T00611054  RH  043%=      5-min Rain = 0
KVP1 210202Z 16008KT 06/M05 A3001 RMK A01 T00611054  RH  043%=      5-min Rain = 0
KVP1 210203Z 17009KT 06/M05 A3001 RMK A01 T00601054  RH  044%=      5-min Rain = 0
KVP1 210204Z 17009KT 06/M05 A3001 RMK A01 T00591054  RH  044%=      5-min Rain = 0
KVP1 210205Z 17009KT 06/M05 A3001 RMK A01 T00601053  RH  044%=      5-min Rain = 0
KVP1 210206Z 17010KT 06/M05 A3001 RMK A01 T00591053  RH  044%=      5-min Rain = 0
KVP1 210207Z 17009KT 06/M05 A3001 RMK A01 T00611052  RH  044%=      5-min Rain = 0
KVP1 210208Z 17009KT 06/M05 A3001 RMK A01 T00611052  RH  044%=      5-min Rain = 0
KVP1 210209Z 16009KT 06/M05 A3001 RMK A01 T00611052  RH  044%=      5-min Rain = 0
KVP1 210210Z 16009KT 06/M05 A3001 RMK A01 T00621052  RH  044%=      5-min Rain = 0
KVP1 210211Z 16008KT 06/M05 A3001 RMK A01 T00621052  RH  044%=      5-min Rain = 0
KVP1 210212Z 16009KT 06/M05 A3001 RMK A01 T00611052  RH  044%=      5-min Rain = 0
KVP1 210213Z 16009KT 06/M05 A3001 RMK A01 T00601052  RH  044%=      5-min Rain = 0
KVP1 210214Z 16009KT 06/M05 A3001 RMK A01 T00601052  RH  044%=      5-min Rain = 0
KVP1 210215Z 16009KT 06/M05 A3001 RMK A01 T00591053  RH  044%=      5-min Rain = 0
KVP1 210216Z 16009KT 06/M05 A3001 RMK A01 T00591052  RH  045%=      5-min Rain = 0
KVP1 210217Z 16009KT 06/M05 A3001 RMK A01 T00591052  RH  045%=      5-min Rain = 0
KVP1 210218Z 17009KT 06/M05 A3001 RMK A01 T00591052  RH  045%=      5-min Rain = 0
KVP1 210219Z 17009KT 06/M05 A3001 RMK A01 T00601052  RH  045%=      5-min Rain = 0
KVP1 210220Z 16009KT 06/M05 A3001 RMK A01 T00601052  RH  044%=      5-min Rain = 0
KVP1 210221Z 16009KT 06/M05 A3001 RMK A01 T00601052  RH  044%=      5-min Rain = 0
KVP1 210222Z 16009KT 06/M05 A3001 RMK A01 T00611052  RH  044%=      5-min Rain = 0
KVP1 210223Z 16009KT 06/M05 A3001 RMK A01 T00601052  RH  044%=      5-min Rain = 0
KVP1 210224Z 16009KT 06/M05 A3001 RMK A01 T00601052  RH  044%=      5-min Rain = 0
KVP1 210225Z 16009KT 06/M05 A3001 RMK A01 T00601053  RH  044%=      5-min Rain = 0
KVP1 210226Z 16009KT 06/M05 A3001 RMK A01 T00601052  RH  044%=      5-min Rain = 0
KVP1 210227Z 16009KT 06/M05 A3001 RMK A01 T00591053  RH  044%=      5-min Rain = 0
KVP1 210228Z 16009KT 06/M05 A3001 RMK A01 T00591053  RH  044%=      5-min Rain = 0
KVP1 210229Z 16009KT 06/M05 A3001 RMK A01 T00601053  RH  044%=      5-min Rain = 0
KVP1 210230Z 16009KT 06/M05 A3001 RMK A01 T00591053  RH  044%=      5-min Rain = 0
KVP1 210231Z 16009KT 06/M05 A30 RMK A01 T00591053  RH  044%=      5-min Rain = 0
KVP1 210232Z 16009KT 06/M05 A30 RMK A01 T00591054  RH  044%=      5-min Rain = 0
KVP1 210233Z 16009KT 06/M05 A30 RMK A01 T00591054  RH  044%=      5-min Rain = 0
KVP1 210234Z 16009KT 06/M05 A30 RMK A01 T00591054  RH  044%=      5-min Rain = 0
KVP1 210235Z 16009KT 06/M05 A30 RMK A01 T00591054  RH  044%=      5-min Rain = 0
KVP1 210236Z 16009KT 06/M05 A30 RMK A01 T00601054  RH  044%=      5-min Rain = 0
KVP1 210237Z 16009KT 06/M06 A30 RMK A01 T00601055  RH  044%=      5-min Rain = 0
KVP1 210238Z 16009KT 06/M06 A30 RMK A01 T00601055  RH  043%=      5-min Rain = 0
KVP1 210239Z 16009KT 06/M06 A30 RMK A01 T00601055  RH  043%=      5-min Rain = 0
KVP1 210240Z 16010KT 06/M06 A30 RMK A01 T00601055  RH  043%=      5-min Rain = 0
KVP1 210241Z 16009KT 06/M06 A30 RMK A01 T00601056  RH  043%=      5-min Rain = 0
KVP1 210242Z 16009KT 06/M06 A30 RMK A01 T00601056  RH  043%=      5-min Rain = 0
KVP1 210243Z 16010KT 06/M06 A30 RMK A01 T00601056  RH  043%=      5-min Rain = 0
KVP1 210244Z 16009KT 06/M06 A30 RMK A01 T00601056  RH  043%=      5-min Rain = 0
KVP1 210245Z 16009KT 06/M06 A30 RMK A01 T00601057  RH  043%=      5-min Rain = 0
KVP1 210246Z 16009KT 06/M06 A30 RMK A01 T00601057  RH  043%=      5-min Rain = 0
KVP1 210247Z 16009KT 06/M06 A30 RMK A01 T00601057  RH  043%=      5-min Rain = 0
KVP1 210248Z 17009KT 06/M06 A30 RMK A01 T00591058  RH  043%=      5-min Rain = 0
KVP1 210249Z 17009KT 06/M06 A30 RMK A01 T00591058  RH  043%=      5-min Rain = 0
KVP1 210250Z 17009KT 06/M06 A30 RMK A01 T00591058  RH  043%=      5-min Rain = 0
KVP1 210251Z 16009KT 06/M06 A30 RMK A01 T00591059  RH  043%=      5-min Rain = 0
KVP1 210252Z 17009KT 06/M06 A30 RMK A01 T00591059  RH  042%=      5-min Rain = 0
KVP1 210253Z 17009KT 06/M06 A30 RMK A01 T00591059  RH  042%=      5-min Rain = 0
KVP1 210254Z 17010KT 06/M06 A30 RMK A01 T00591059  RH  042%=      5-min Rain = 0
KVP1 210255Z 17009KT 06/M06 A30 RMK A01 T00581060  RH  042%=      5-min Rain = 0
KVP1 210256Z 17009KT 06/M06 A30 RMK A01 T00581060  RH  042%=      5-min Rain = 0
KVP1 210257Z 17009KT 06/M06 A30 RMK A01 T00581060  RH  042%=      5-min Rain = 0
KVP1 210258Z 17009KT 06/M06 A30 RMK A01 T00571061  RH  043%=      5-min Rain = 0
KVP1 210259Z 17009KT 06/M06 A30 RMK A01 T00561061  RH  043%=      5-min Rain = 0
KVP1 210300Z 17008KT 06/M06 A30 RMK A01 T00551061  RH  043%=      5-min Rain = 0
KVP1 210301Z 17009KT 06/M06 A30 RMK A01 T00551062  RH  043%=      5-min Rain = 0
KVP1 210302Z 17009KT 06/M06 A30 RMK A01 T00551061  RH  043%=      5-min Rain = 0
KVP1 210303Z 17009KT 06/M06 A30 RMK A01 T00551061  RH  043%=      5-min Rain = 0
KVP1 210304Z 17009KT 05/M06 A30 RMK A01 T00541062  RH  043%=      5-min Rain = 0
KVP1 210305Z 17009KT 05/M06 A30 RMK A01 T00541062  RH  043%=      5-min Rain = 0
KVP1 210306Z 17009KT 05/M06 A30 RMK A01 T00531062  RH  043%=      5-min Rain = 0
KVP1 210307Z 17009KT 05/M06 A30 RMK A01 T00531062  RH  043%=      5-min Rain = 0
KVP1 210308Z 17009KT 05/M06 A30 RMK A01 T00521062  RH  043%=      5-min Rain = 0
KVP1 210309Z 17009KT 05/M06 A30 RMK A01 T00521062  RH  044%=      5-min Rain = 0
KVP1 210310Z 17009KT 05/M06 A30 RMK A01 T00511062  RH  044%=      5-min Rain = 0
KVP1 210311Z 17009KT 05/M06 A30 RMK A01 T00521062  RH  044%=      5-min Rain = 0
KVP1 210312Z 17010KT 05/M06 A30 RMK A01 T00521062  RH  044%=      5-min Rain = 0
KVP1 210313Z 17009KT 05/M06 A30 RMK A01 T00521062  RH  044%=      5-min Rain = 0
KVP1 210314Z 17010KT 05/M06 A30 RMK A01 T00521061  RH  044%=      5-min Rain = 0
KVP1 210315Z 17010KT 05/M06 A30 RMK A01 T00521061  RH  044%=      5-min Rain = 0
KVP1 210316Z 17010KT 05/M06 A30 RMK A01 T00541060  RH  043%=      5-min Rain = 0
KVP1 210317Z 17010KT 05/M06 A30 RMK A01 T00541061  RH  043%=      5-min Rain = 0
KVP1 210318Z 17010KT 06/M06 A30 RMK A01 T00551061  RH  043%=      5-min Rain = 0
KVP1 210319Z 17010KT 06/M06 A30 RMK A01 T00551060  RH  043%=      5-min Rain = 0
KVP1 210320Z 17010KT 06/M06 A30 RMK A01 T00561060  RH  043%=      5-min Rain = 0
KVP1 210321Z 17010KT 06/M06 A2999 RMK A01 T00561060  RH  043%=      5-min Rain = 0
KVP1 210322Z 17009KT 06/M06 A2999 RMK A01 T00561060  RH  043%=      5-min Rain = 0
KVP1 210323Z 16010KT 06/M06 A2999 RMK A01 T00561060  RH  043%=      5-min Rain = 0
KVP1 210324Z 16009KT 06/M06 A2999 RMK A01 T00561060  RH  043%=      5-min Rain = 0
KVP1 210325Z 17009KT 06/M06 A2999 RMK A01 T00551060  RH  043%=      5-min Rain = 0
KVP1 210326Z 16009KT 06/M06 A2999 RMK A01 T00551061  RH  043%=      5-min Rain = 0
KVP1 210327Z 16009KT 05/M06 A2999 RMK A01 T00541061  RH  043%=      5-min Rain = 0
KVP1 210328Z 16009KT 05/M06 A2999 RMK A01 T00541061  RH  044%=      5-min Rain = 0
KVP1 210329Z 16009KT 05/M06 A2999 RMK A01 T00531061  RH  044%=      5-min Rain = 0
KVP1 210330Z 16009KT 05/M06 A2999 RMK A01 T00531061  RH  044%=      5-min Rain = 0
KVP1 210331Z 17008KT 05/M06 A2999 RMK A01 T00531061  RH  044%=      5-min Rain = 0
KVP1 210332Z 16008KT 05/M06 A2999 RMK A01 T00521061  RH  044%=      5-min Rain = 0
KVP1 210333Z 16008KT 05/M06 A2999 RMK A01 T00511061  RH  044%=      5-min Rain = 0
KVP1 210334Z 17009KT 05/M06 A2999 RMK A01 T00511061  RH  044%=      5-min Rain = 0
KVP1 210335Z 17009KT 05/M06 A2999 RMK A01 T00511061  RH  044%=      5-min Rain = 0
KVP1 210336Z 17008KT 05/M06 A2999 RMK A01 T00501061  RH  044%=      5-min Rain = 0
KVP1 210337Z 17009KT 05/M06 A2999 RMK A01 T00501062  RH  044%=      5-min Rain = 0
KVP1 210338Z 17008KT 05/M06 A2999 RMK A01 T00491062  RH  045%=      5-min Rain = 0
KVP1 210339Z 17008KT 05/M06 A2998 RMK A01 T00481062  RH  045%=      5-min Rain = 0
KVP1 210340Z 17008KT 05/M06 A2998 RMK A01 T00471062  RH  045%=      5-min Rain = 0
KVP1 210341Z 17008KT 05/M06 A2998 RMK A01 T00471062  RH  045%=      5-min Rain = 0
KVP1 210342Z 17008KT 05/M06 A2998 RMK A01 T00461062  RH  045%=      5-min Rain = 0
KVP1 210343Z 18009KT 05/M06 A2998 RMK A01 T00451062  RH  046%=      5-min Rain = 0
KVP1 210344Z 17008KT 05/M06 A2998 RMK A01 T00451062  RH  046%=      5-min Rain = 0
KVP1 210345Z 18009KT 04/M06 A2998 RMK A01 T00441062  RH  046%=      5-min Rain = 0
KVP1 210346Z 17009KT 04/M06 A2998 RMK A01 T00441062  RH  046%=      5-min Rain = 0
KVP1 210347Z 18008KT 04/M06 A2998 RMK A01 T00441062  RH  046%=      5-min Rain = 0
KVP1 210348Z 18008KT 04/M06 A2999 RMK A01 T00421063  RH  046%=      5-min Rain = 0
KVP1 210349Z 18008KT 04/M06 A2999 RMK A01 T00411063  RH  047%=      5-min Rain = 0
KVP1 210350Z 18008KT 04/M06 A2999 RMK A01 T00401063  RH  047%=      5-min Rain = 0
KVP1 210351Z 19008KT 04/M06 A2999 RMK A01 T00391063  RH  047%=      5-min Rain = 0
KVP1 210352Z 19008KT 04/M06 A2999 RMK A01 T00391063  RH  047%=      5-min Rain = 0
KVP1 210353Z 19007KT 04/M06 A2998 RMK A01 T00381063  RH  047%=      5-min Rain = 0
KVP1 210354Z 19007KT 04/M06 A2998 RMK A01 T00371064  RH  048%=      5-min Rain = 0
KVP1 210355Z 19007KT 04/M06 A2998 RMK A01 T00361064  RH  048%=      5-min Rain = 0
KVP1 210356Z 19007KT 04/M07 A2998 RMK A01 T00351065  RH  048%=      5-min Rain = 0
KVP1 210357Z 18007KT 03/M07 A2998 RMK A01 T00341065  RH  048%=      5-min Rain = 0
KVP1 210358Z 18007KT 03/M07 A2998 RMK A01 T00331065  RH  048%=      5-min Rain = 0
KVP1 210359Z 19007KT 03/M07 A2998 RMK A01 T00321066  RH  049%=      5-min Rain = 0
KVP1 210400Z 19007KT 03/M07 A2998 RMK A01 T00311066  RH  049%=      5-min Rain = 0
KVP1 210401Z 19007KT 03/M07 A2998 RMK A01 T00301066  RH  049%=      5-min Rain = 0
KVP1 210402Z 18007KT 03/M07 A2998 RMK A01 T00291066  RH  050%=      5-min Rain = 0
KVP1 210403Z 18007KT 03/M07 A2998 RMK A01 T00281066  RH  050%=      5-min Rain = 0
KVP1 210404Z 18007KT 03/M07 A2998 RMK A01 T00271067  RH  050%=      5-min Rain = 0
KVP1 210405Z 19007KT 03/M07 A2998 RMK A01 T00261067  RH  050%=      5-min Rain = 0
KVP1 210406Z 19007KT 03/M07 A2998 RMK A01 T00261067  RH  050%=      5-min Rain = 0
KVP1 210407Z 19007KT 03/M07 A2998 RMK A01 T00251067  RH  051%=      5-min Rain = 0
KVP1 210408Z 19007KT 02/M07 A2998 RMK A01 T00241068  RH  051%=      5-min Rain = 0
KVP1 210409Z 19007KT 02/M07 A2998 RMK A01 T00231068  RH  051%=      5-min Rain = 0
KVP1 210410Z 19008KT 02/M07 A2998 RMK A01 T00221069  RH  051%=      5-min Rain = 0
KVP1 210411Z 19008KT 02/M07 A2998 RMK A01 T00211069  RH  051%=      5-min Rain = 0
KVP1 210412Z 19008KT 02/M07 A2998 RMK A01 T00201069  RH  052%=      5-min Rain = 0
KVP1 210413Z 18007KT 02/M07 A2998 RMK A01 T00191069  RH  052%=      5-min Rain = 0
KVP1 210414Z 19008KT 02/M07 A2998 RMK A01 T00181070  RH  052%=      5-min Rain = 0
KVP1 210415Z 19008KT 02/M07 A2998 RMK A01 T00171070  RH  052%=      5-min Rain = 0
KVP1 210416Z 18008KT 02/M07 A2998 RMK A01 T00161070  RH  053%=      5-min Rain = 0
KVP1 210417Z 18008KT 02/M07 A2998 RMK A01 T00161070  RH  053%=      5-min Rain = 0
KVP1 210418Z 18008KT 02/M07 A2998 RMK A01 T00151070  RH  053%=      5-min Rain = 0
KVP1 210419Z 18008KT 01/M07 A2998 RMK A01 T00141070  RH  053%=      5-min Rain = 0
KVP1 210420Z 18007KT 01/M07 A2998 RMK A01 T00131071  RH  054%=      5-min Rain = 0
KVP1 210421Z 18007KT 01/M07 A2998 RMK A01 T00131071  RH  054%=      5-min Rain = 0
KVP1 210422Z 18008KT 01/M07 A2998 RMK A01 T00111071  RH  054%=      5-min Rain = 0
KVP1 210423Z 18008KT 01/M07 A2998 RMK A01 T00111071  RH  054%=      5-min Rain = 0
KVP1 210424Z 19008KT 01/M07 A2998 RMK A01 T00101071  RH  055%=      5-min Rain = 0
KVP1 210425Z 19008KT 01/M07 A2998 RMK A01 T00091071  RH  055%=      5-min Rain = 0
KVP1 210426Z 19008KT 01/M07 A2998 RMK A01 T00091072  RH  055%=      5-min Rain = 0
KVP1 210427Z 19008KT 01/M07 A2998 RMK A01 T00081072  RH  055%=      5-min Rain = 0
KVP1 210428Z 19009KT 01/M07 A2998 RMK A01 T00071072  RH  055%=      5-min Rain = 0
KVP1 210429Z 19009KT 01/M07 A2998 RMK A01 T00071072  RH  056%=      5-min Rain = 0
KVP1 210430Z 19009KT 01/M07 A2998 RMK A01 T00061072  RH  056%=      5-min Rain = 0
KVP1 210431Z 19009KT 01/M07 A2998 RMK A01 T00061072  RH  056%=      5-min Rain = 0
KVP1 210432Z 20009KT 01/M07 A2998 RMK A01 T00051072  RH  056%=      5-min Rain = 0
KVP1 210433Z 20009KT 01/M07 A2998 RMK A01 T00051072  RH  056%=      5-min Rain = 0
KVP1 210434Z 20010KT 01/M07 A2998 RMK A01 T00051072  RH  056%=      5-min Rain = 0
KVP1 210435Z 20010KT 01/M07 A2998 RMK A01 T00051071  RH  057%=      5-min Rain = 0
KVP1 210436Z 20010KT 01/M07 A2998 RMK A01 T00061071  RH  057%=      5-min Rain = 0
KVP1 210437Z 20010KT 01/M07 A2998 RMK A01 T00061071  RH  056%=      5-min Rain = 0
KVP1 210438Z 20010KT 01/M07 A2998 RMK A01 T00061071  RH  056%=      5-min Rain = 0
KVP1 210439Z 20010KT 01/M07 A2998 RMK A01 T00061070  RH  057%=      5-min Rain = 0
KVP1 210440Z 20010KT 01/M07 A2998 RMK A01 T00071070  RH  057%=      5-min Rain = 0
KVP1 210441Z 20010KT 01/M07 A2998 RMK A01 T00071070  RH  057%=      5-min Rain = 0
KVP1 210442Z 20010KT 01/M07 A2998 RMK A01 T00061070  RH  057%=      5-min Rain = 0
KVP1 210443Z 20010KT 01/M07 A2998 RMK A01 T00071069  RH  057%=      5-min Rain = 0
KVP1 210444Z 20010KT 01/M07 A2998 RMK A01 T00071069  RH  057%=      5-min Rain = 0
KVP1 210445Z 20010KT 01/M07 A2998 RMK A01 T00071069  RH  057%=      5-min Rain = 0
KVP1 210446Z 20009KT 01/M07 A2998 RMK A01 T00061070  RH  057%=      5-min Rain = 0
KVP1 210447Z 20009KT 01/M07 A2998 RMK A01 T00061070  RH  057%=      5-min Rain = 0
KVP1 210448Z 20010KT 01/M07 A2998 RMK A01 T00061070  RH  057%=      5-min Rain = 0
KVP1 210449Z 20010KT 01/M07 A2998 RMK A01 T00061070  RH  057%=      5-min Rain = 0
KVP1 210450Z 20010KT 01/M07 A2998 RMK A01 T00051070  RH  057%=      5-min Rain = 0
KVP1 210451Z 20010KT 01/M07 A2998 RMK A01 T00051071  RH  057%=      5-min Rain = 0
KVP1 210452Z 20010KT 00/M07 A2998 RMK A01 T00041071  RH  057%=      5-min Rain = 0
KVP1 210453Z 20009KT 00/M07 A2998 RMK A01 T00041071  RH  057%=      5-min Rain = 0
KVP1 210454Z 20010KT 00/M07 A2998 RMK A01 T00031072  RH  057%=      5-min Rain = 0
KVP1 210455Z 19009KT 00/M07 A2998 RMK A01 T00031072  RH  057%=      5-min Rain = 0
KVP1 210456Z 19010KT 00/M07 A2998 RMK A01 T00021072  RH  057%=      5-min Rain = 0
KVP1 210457Z 19009KT 00/M07 A2998 RMK A01 T00011073  RH  057%=      5-min Rain = 0
KVP1 210458Z 19010KT 00/07 A2998 RMK A01 T00-00-74  RH  058%=      5-min Rain = 0
KVP1 210459Z 19010KT 00/07 A2998 RMK A01 T00-00-73  RH  058%=      5-min Rain = 0
KVP1 210500Z 19009KT 00/07 A2998 RMK A01 T00-00-73  RH  058%=      5-min Rain = 0
KVP1 210501Z 19009KT 00/07 A2998 RMK A01 T00-00-73  RH  058%=      5-min Rain = 0
KVP1 210502Z 19009KT M00/M07 A2998 RMK A01 T10011073  RH  058%=      5-min Rain = 0
KVP1 210503Z 19009KT 00/07 A2998 RMK A01 T00000-72  RH  058%=      5-min Rain = 0
KVP1 210504Z 19008KT 00/07 A2999 RMK A01 T00000-72  RH  058%=      5-min Rain = 0
KVP1 210505Z 19008KT 00/M07 A2998 RMK A01 T00011072  RH  058%=      5-min Rain = 0
KVP1 210506Z 19008KT 00/07 A2998 RMK A01 T00-00-74  RH  058%=      5-min Rain = 0
KVP1 210507Z 19008KT M00/M08 A2998 RMK A01 T10021076  RH  058%=      5-min Rain = 0
KVP1 210508Z 19008KT M00/M08 A2998 RMK A01 T10031076  RH  058%=      5-min Rain = 0
KVP1 210509Z 20008KT M00/M08 A2998 RMK A01 T10041076  RH  058%=      5-min Rain = 0
KVP1 210510Z 20007KT M00/M08 A2998 RMK A01 T10041076  RH  058%=      5-min Rain = 0
KVP1 210511Z 20008KT M00/M08 A2998 RMK A01 T10031076  RH  058%=      5-min Rain = 0
KVP1 210512Z 19007KT M00/M08 A2998 RMK A01 T10031075  RH  058%=      5-min Rain = 0
KVP1 210513Z 18008KT M00/M08 A2998 RMK A01 T10031075  RH  058%=      5-min Rain = 0
KVP1 210514Z 19008KT M00/M08 A2998 RMK A01 T10031075  RH  058%=      5-min Rain = 0
KVP1 210515Z 19009KT M00/M08 A2998 RMK A01 T10041075  RH  059%=      5-min Rain = 0
KVP1 210516Z 20009KT M00/M07 A2998 RMK A01 T10021073  RH  059%=      5-min Rain = 0
KVP1 210517Z 19009KT M00/M07 A2998 RMK A01 T10011073  RH  059%=      5-min Rain = 0
KVP1 210518Z 19009KT M00/M07 A2998 RMK A01 T10011073  RH  058%=      5-min Rain = 0
KVP1 210519Z 19009KT M00/M07 A2998 RMK A01 T10021073  RH  059%=      5-min Rain = 0
KVP1 210520Z 19009KT M00/M07 A2998 RMK A01 T10021073  RH  059%=      5-min Rain = 0
KVP1 210521Z 19009KT M00/M07 A2998 RMK A01 T10021072  RH  059%=      5-min Rain = 0
KVP1 210522Z 20009KT M00/M07 A2998 RMK A01 T10031073  RH  059%=      5-min Rain = 0
KVP1 210523Z 20009KT M00/M07 A2998 RMK A01 T10031072  RH  060%=      5-min Rain = 0
KVP1 210524Z 19009KT M00/M07 A2998 RMK A01 T10031072  RH  060%=      5-min Rain = 0
KVP1 210525Z 19009KT M00/M07 A2998 RMK A01 T10031071  RH  060%=      5-min Rain = 0
KVP1 210526Z 20010KT M00/M07 A2998 RMK A01 T10021071  RH  060%=      5-min Rain = 0
KVP1 210527Z 20010KT M00/M07 A2998 RMK A01 T10021070  RH  060%=      5-min Rain = 0
KVP1 210528Z 20009KT M00/M07 A2998 RMK A01 T10011070  RH  060%=      5-min Rain = 0
KVP1 210529Z 20010KT 00/07 A2998 RMK A01 T00000-69  RH  060%=      5-min Rain = 0
KVP1 210530Z 20010KT 00/M07 A2998 RMK A01 T00011069  RH  059%=      5-min Rain = 0
KVP1 210531Z 21011KT 00/M07 A2998 RMK A01 T00031068  RH  059%=      5-min Rain = 0
KVP1 210532Z 20011KT 01/M07 A2998 RMK A01 T00051066  RH  059%=      5-min Rain = 0
KVP1 210533Z 20011KT 01/M07 A2998 RMK A01 T00071066  RH  058%=      5-min Rain = 0
KVP1 210534Z 20010KT 01/M06 A2997 RMK A01 T00101064  RH  058%=      5-min Rain = 0
KVP1 210535Z 20010KT 01/M06 A2997 RMK A01 T00131063  RH  057%=      5-min Rain = 0
KVP1 210536Z 21010KT 01/M06 A2998 RMK A01 T00141064  RH  056%=      5-min Rain = 0
KVP1 210537Z 21010KT 02/M06 A2998 RMK A01 T00151064  RH  056%=      5-min Rain = 0
KVP1 210538Z 21011KT 02/M06 A2998 RMK A01 T00161063  RH  055%=      5-min Rain = 0
KVP1 210539Z 21010KT 02/M06 A2998 RMK A01 T00161064  RH  055%=      5-min Rain = 0
KVP1 210540Z 21011KT 02/M06 A2998 RMK A01 T00171064  RH  055%=      5-min Rain = 0
KVP1 210541Z 21011KT 02/M06 A2998 RMK A01 T00181063  RH  055%=      5-min Rain = 0
KVP1 210542Z 21010KT 02/M06 A2998 RMK A01 T00191063  RH  055%=      5-min Rain = 0
KVP1 210543Z 21010KT 02/M06 A2998 RMK A01 T00191063  RH  054%=      5-min Rain = 0
KVP1 210544Z 21010KT 02/M06 A2998 RMK A01 T00201063  RH  054%=      5-min Rain = 0
KVP1 210545Z 21010KT 02/M06 A2998 RMK A01 T00201063  RH  054%=      5-min Rain = 0
KVP1 210546Z 21010KT 02/M06 A2998 RMK A01 T00211062  RH  054%=      5-min Rain = 0
KVP1 210547Z 21010KT 02/M06 A2998 RMK A01 T00211062  RH  054%=      5-min Rain = 0
KVP1 210548Z 21010KT 02/M06 A2998 RMK A01 T00221062  RH  054%=      5-min Rain = 0
KVP1 210549Z 21010KT 02/M06 A2998 RMK A01 T00231061  RH  054%=      5-min Rain = 0
KVP1 210550Z 21010KT 02/M06 A2998 RMK A01 T00241061  RH  053%=      5-min Rain = 0
KVP1 210551Z 20010KT 02/M06 A2998 RMK A01 T00241061  RH  053%=      5-min Rain = 0
KVP1 210552Z 20010KT 03/M06 A2998 RMK A01 T00251061  RH  053%=      5-min Rain = 0
KVP1 210553Z 20010KT 03/M06 A2998 RMK A01 T00251061  RH  053%=      5-min Rain = 0
KVP1 210554Z 21010KT 03/M06 A2998 RMK A01 T00261061  RH  053%=      5-min Rain = 0
KVP1 210555Z 20010KT 03/M06 A2998 RMK A01 T00261062  RH  053%=      5-min Rain = 0
KVP1 210556Z 20010KT 03/M06 A2998 RMK A01 T00261061  RH  052%=      5-min Rain = 0
KVP1 210557Z 21011KT 03/M06 A2998 RMK A01 T00271061  RH  052%=      5-min Rain = 0
KVP1 210558Z 21010KT 03/M06 A2998 RMK A01 T00271061  RH  052%=      5-min Rain = 0
KVP1 210559Z 21011KT 03/M06 A2998 RMK A01 T00281061  RH  052%=      5-min Rain = 0

Page generated in 0.1255 seconds.